Time,TemperatureF,DewpointF,PressureIn,WindDirection,WindDirectionDegrees,WindSpeedMPH,WindSpeedGustMPH,Humidity,HourlyPrecipIn,Conditions,Clouds,dailyrainin,SoftwareType,DateUTC
2013-06-09 00:02:00,78.8,22.7,29.95,SW,225,6.3,8.5,13,0.00,,,0.00,WUHU216HW,2013-06-09 07:02:00,
2013-06-09 00:03:00,78.8,22.7,29.95,WSW,248,6.3,8.5,13,0.00,,,0.00,WUHU216HW,2013-06-09 07:03:00,
2013-06-09 00:07:00,78.7,22.5,29.95,SW,225,5.4,8.5,13,0.00,,,0.00,WUHU216HW,2013-06-09 07:07:00,
2013-06-09 00:08:00,78.7,22.5,29.95,WSW,248,7.4,9.2,13,0.00,,,0.00,WUHU216HW,2013-06-09 07:08:00,
2013-06-09 00:12:00,78.8,24.3,29.95,West,270,8.3,10.3,14,0.00,,,0.00,WUHU216HW,2013-06-09 07:12:00,
2013-06-09 00:13:00,78.8,26.0,29.95,WSW,248,8.1,10.3,15,0.00,,,0.00,WUHU216HW,2013-06-09 07:13:00,
2013-06-09 00:14:00,78.8,24.3,29.95,West,270,6.9,10.3,14,0.00,,,0.00,WUHU216HW,2013-06-09 07:14:00,
2013-06-09 00:17:00,78.8,26.0,29.95,West,270,8.3,10.3,15,0.00,,,0.00,WUHU216HW,2013-06-09 07:17:00,
2013-06-09 00:18:00,78.8,24.3,29.95,WNW,293,9.2,10.3,14,0.00,,,0.00,WUHU216HW,2013-06-09 07:18:00,
2013-06-09 00:19:00,78.8,26.0,29.95,West,270,8.1,10.3,15,0.00,,,0.00,WUHU216HW,2013-06-09 07:19:00,
2013-06-09 00:20:00,78.8,26.0,29.95,West,270,7.6,10.3,15,0.00,,,0.00,WUHU216HW,2013-06-09 07:20:00,
2013-06-09 00:23:00,78.8,26.0,29.94,West,270,7.6,10.1,15,0.00,,,0.00,WUHU216HW,2013-06-09 07:23:00,
2013-06-09 00:24:00,78.8,26.0,29.94,West,270,8.5,10.1,15,0.00,,,0.00,WUHU216HW,2013-06-09 07:24:00,
2013-06-09 00:25:00,78.8,26.0,29.95,West,270,8.9,9.2,15,0.00,,,0.00,WUHU216HW,2013-06-09 07:25:00,
2013-06-09 00:28:00,79.0,26.2,29.95,West,270,6.3,8.9,15,0.00,,,0.00,WUHU216HW,2013-06-09 07:28:00,
2013-06-09 00:29:00,79.0,26.2,29.95,WNW,293,6.9,8.9,15,0.00,,,0.00,WUHU216HW,2013-06-09 07:29:00,
2013-06-09 00:30:00,79.0,26.2,29.95,West,270,6.0,8.9,15,0.00,,,0.00,WUHU216HW,2013-06-09 07:30:00,
2013-06-09 00:33:00,79.0,26.2,29.95,West,270,6.3,8.9,15,0.00,,,0.00,WUHU216HW,2013-06-09 07:33:00,
2013-06-09 00:34:00,79.0,26.2,29.95,West,270,4.9,8.9,15,0.00,,,0.00,WUHU216HW,2013-06-09 07:34:00,
2013-06-09 00:35:00,79.0,26.2,29.95,West,270,6.3,8.9,15,0.00,,,0.00,WUHU216HW,2013-06-09 07:35:00,
2013-06-09 00:38:00,78.8,26.0,29.95,West,270,4.7,8.5,15,0.00,,,0.00,WUHU216HW,2013-06-09 07:38:00,
2013-06-09 00:39:00,78.8,26.0,29.95,West,270,4.0,7.2,15,0.00,,,0.00,WUHU216HW,2013-06-09 07:39:00,
2013-06-09 00:40:00,78.7,25.9,29.95,WSW,248,3.6,7.2,15,0.00,,,0.00,WUHU216HW,2013-06-09 07:40:00,
2013-06-09 00:43:00,78.5,25.7,29.95,West,270,2.2,7.2,15,0.00,,,0.00,WUHU216HW,2013-06-09 07:43:00,
2013-06-09 00:44:00,78.5,27.5,29.95,WSW,248,3.4,7.2,16,0.00,,,0.00,WUHU216HW,2013-06-09 07:44:00,
2013-06-09 00:45:00,78.5,27.5,29.95,West,270,3.4,7.2,16,0.00,,,0.00,WUHU216HW,2013-06-09 07:45:00,
2013-06-09 00:48:00,78.3,27.3,29.95,SW,225,0.7,4.7,16,0.00,,,0.00,WUHU216HW,2013-06-09 07:48:00,
2013-06-09 00:49:00,78.1,27.2,29.95,West,270,0.0,4.0,16,0.00,,,0.00,WUHU216HW,2013-06-09 07:49:00,
2013-06-09 00:50:00,78.1,27.2,29.95,NNW,338,0.0,3.8,16,0.00,,,0.00,WUHU216HW,2013-06-09 07:50:00,
2013-06-09 00:51:00,78.1,27.2,29.95,NNW,338,0.4,3.8,16,0.00,,,0.00,WUHU216HW,2013-06-09 07:51:00,
2013-06-09 00:53:00,77.8,26.8,29.95,North,0,0.0,3.8,16,0.00,,,0.00,WUHU216HW,2013-06-09 07:53:00,
2013-06-09 00:55:00,77.8,26.8,29.95,North,0,1.1,3.8,16,0.00,,,0.00,WUHU216HW,2013-06-09 07:55:00,
2013-06-09 00:56:00,77.8,26.8,29.95,WNW,293,0.0,2.2,16,0.00,,,0.00,WUHU216HW,2013-06-09 07:56:00,
2013-06-09 00:58:00,77.4,26.6,29.95,SSW,203,0.0,1.6,16,0.00,,,0.00,WUHU216HW,2013-06-09 07:58:00,
2013-06-09 00:59:00,77.4,26.6,29.95,SE,135,1.1,1.6,16,0.00,,,0.00,WUHU216HW,2013-06-09 07:59:00,
2013-06-09 01:00:00,77.4,26.6,29.95,SSE,158,3.6,3.6,16,0.00,,,0.00,WUHU216HW,2013-06-09 08:00:00,
2013-06-09 01:01:00,77.2,26.5,29.95,SE,135,3.1,5.1,16,0.00,,,0.00,WUHU216HW,2013-06-09 08:01:00,
2013-06-09 01:04:00,77.0,26.3,29.95,SE,135,3.8,5.1,16,0.00,,,0.00,WUHU216HW,2013-06-09 08:04:00,
2013-06-09 01:05:00,77.0,26.3,29.94,ESE,113,4.3,5.1,16,0.00,,,0.00,WUHU216HW,2013-06-09 08:05:00,
2013-06-09 01:07:00,76.7,26.0,29.95,ESE,113,0.7,5.1,16,0.00,,,0.00,WUHU216HW,2013-06-09 08:07:00,
2013-06-09 01:09:00,76.7,24.4,29.95,West,270,5.1,5.1,15,0.00,,,0.00,WUHU216HW,2013-06-09 08:09:00,
2013-06-09 01:10:00,76.5,24.2,29.95,WNW,293,4.9,6.7,15,0.00,,,0.00,WUHU216HW,2013-06-09 08:10:00,
2013-06-09 01:12:00,76.3,24.1,29.95,SW,225,0.4,6.7,15,0.00,,,0.00,WUHU216HW,2013-06-09 08:12:00,
2013-06-09 01:14:00,76.1,23.9,29.95,WSW,248,2.0,6.7,15,0.00,,,0.00,WUHU216HW,2013-06-09 08:14:00,
2013-06-09 01:15:00,76.0,23.8,29.95,SSW,203,2.0,6.7,15,0.00,,,0.00,WUHU216HW,2013-06-09 08:15:00,
2013-06-09 01:16:00,76.0,23.8,29.95,SSW,203,3.1,6.7,15,0.00,,,0.00,WUHU216HW,2013-06-09 08:16:00,
2013-06-09 01:17:00,76.0,23.8,29.95,SSW,203,1.8,6.7,15,0.00,,,0.00,WUHU216HW,2013-06-09 08:17:00,
2013-06-09 01:19:00,76.0,25.5,29.95,SE,135,1.1,6.7,16,0.00,,,0.00,WUHU216HW,2013-06-09 08:19:00,
2013-06-09 01:21:00,75.6,25.2,29.95,North,0,1.1,4.0,16,0.00,,,0.00,WUHU216HW,2013-06-09 08:21:00,
2013-06-09 01:22:00,75.6,25.2,29.95,North,0,0.4,3.4,16,0.00,,,0.00,WUHU216HW,2013-06-09 08:22:00,
2013-06-09 01:24:00,75.2,23.2,29.95,North,0,0.4,3.4,15,0.00,,,0.00,WUHU216HW,2013-06-09 08:24:00,
2013-06-09 01:26:00,75.1,24.8,29.95,NE,45,1.8,3.4,16,0.00,,,0.00,WUHU216HW,2013-06-09 08:26:00,
2013-06-09 01:27:00,75.1,24.8,29.95,ENE,68,1.8,3.1,16,0.00,,,0.00,WUHU216HW,2013-06-09 08:27:00,
2013-06-09 01:29:00,74.9,24.6,29.95,NE,45,0.0,1.8,16,0.00,,,0.00,WUHU216HW,2013-06-09 08:29:00,
2013-06-09 01:32:00,74.7,24.5,29.95,ENE,68,1.8,1.8,16,0.00,,,0.00,WUHU216HW,2013-06-09 08:32:00,
2013-06-09 01:34:00,74.5,24.3,29.95,SE,135,2.9,2.9,16,0.00,,,0.00,WUHU216HW,2013-06-09 08:34:00,
2013-06-09 01:35:00,74.5,24.3,29.95,ESE,113,2.0,2.9,16,0.00,,,0.00,WUHU216HW,2013-06-09 08:35:00,
2013-06-09 01:37:00,74.5,24.3,29.95,ESE,113,2.5,3.1,16,0.00,,,0.00,WUHU216HW,2013-06-09 08:37:00,
2013-06-09 01:38:00,74.5,24.3,29.95,SE,135,1.1,3.1,16,0.00,,,0.00,WUHU216HW,2013-06-09 08:38:00,
2013-06-09 01:39:00,74.3,24.2,29.95,SE,135,1.1,3.1,16,0.00,,,0.00,WUHU216HW,2013-06-09 08:39:00,
2013-06-09 01:40:00,74.3,24.2,29.96,SE,135,1.1,3.1,16,0.00,,,0.00,WUHU216HW,2013-06-09 08:40:00,
2013-06-09 01:42:00,74.2,24.0,29.95,SSE,158,1.6,3.1,16,0.00,,,0.00,WUHU216HW,2013-06-09 08:42:00,
2013-06-09 01:43:00,74.2,24.0,29.96,SSE,158,2.2,3.1,16,0.00,,,0.00,WUHU216HW,2013-06-09 08:43:00,
2013-06-09 01:44:00,74.0,24.0,29.96,SSE,158,2.7,3.4,16,0.00,,,0.00,WUHU216HW,2013-06-09 08:44:00,
2013-06-09 01:45:00,73.8,23.8,29.95,SSE,158,2.2,3.4,16,0.00,,,0.00,WUHU216HW,2013-06-09 08:45:00,
2013-06-09 01:47:00,73.8,23.8,29.95,SSE,158,1.8,3.4,16,0.00,,,0.00,WUHU216HW,2013-06-09 08:47:00,
2013-06-09 01:48:00,73.6,23.7,29.96,SSW,203,2.7,3.4,16,0.00,,,0.00,WUHU216HW,2013-06-09 08:48:00,
2013-06-09 01:49:00,73.6,23.7,29.95,SSW,203,2.5,3.4,16,0.00,,,0.00,WUHU216HW,2013-06-09 08:49:00,
2013-06-09 01:50:00,73.4,23.5,29.96,South,180,4.3,4.3,16,0.00,,,0.00,WUHU216HW,2013-06-09 08:50:00,
2013-06-09 01:52:00,73.3,23.3,29.95,SSE,158,3.4,4.3,16,0.00,,,0.00,WUHU216HW,2013-06-09 08:52:00,
2013-06-09 01:54:00,73.1,23.2,29.95,South,180,3.4,4.5,16,0.00,,,0.00,WUHU216HW,2013-06-09 08:54:00,
2013-06-09 01:55:00,72.9,23.0,29.95,South,180,3.4,4.5,16,0.00,,,0.00,WUHU216HW,2013-06-09 08:55:00,
2013-06-09 01:57:00,72.9,24.7,29.95,SSW,203,2.7,4.5,17,0.00,,,0.00,WUHU216HW,2013-06-09 08:57:00,
2013-06-09 01:58:00,72.7,24.5,29.95,SSW,203,2.7,4.5,17,0.00,,,0.00,WUHU216HW,2013-06-09 08:58:00,
2013-06-09 01:59:00,72.7,24.5,29.96,SW,225,2.2,4.5,17,0.00,,,0.00,WUHU216HW,2013-06-09 08:59:00,
2013-06-09 02:00:00,72.5,24.4,29.96,SSW,203,3.1,4.5,17,0.00,,,0.00,WUHU216HW,2013-06-09 09:00:00,
2013-06-09 02:01:00,72.5,24.4,29.96,SSW,203,3.1,4.5,17,0.00,,,0.00,WUHU216HW,2013-06-09 09:01:00,
2013-06-09 02:03:00,72.4,24.2,29.96,SW,225,4.0,5.1,17,0.00,,,0.00,WUHU216HW,2013-06-09 09:03:00,
2013-06-09 02:04:00,72.4,24.2,29.95,SW,225,5.6,5.6,17,0.00,,,0.00,WUHU216HW,2013-06-09 09:04:00,
2013-06-09 02:06:00,72.4,24.2,29.95,SSW,203,2.0,5.6,17,0.00,,,0.00,WUHU216HW,2013-06-09 09:06:00,
2013-06-09 02:08:00,72.4,24.2,29.96,SW,225,1.6,5.6,17,0.00,,,0.00,WUHU216HW,2013-06-09 09:08:00,
2013-06-09 02:09:00,72.4,24.2,29.95,SSW,203,4.0,5.6,17,0.00,,,0.00,WUHU216HW,2013-06-09 09:09:00,
2013-06-09 02:12:00,72.4,24.2,29.95,SSW,203,2.5,5.6,17,0.00,,,0.00,WUHU216HW,2013-06-09 09:12:00,
2013-06-09 02:13:00,72.4,24.2,29.95,SSW,203,3.4,5.6,17,0.00,,,0.00,WUHU216HW,2013-06-09 09:13:00,
2013-06-09 02:15:00,72.4,24.2,29.95,SW,225,0.9,4.3,17,0.00,,,0.00,WUHU216HW,2013-06-09 09:15:00,
2013-06-09 02:17:00,72.2,24.0,29.95,South,180,2.5,4.3,17,0.00,,,0.00,WUHU216HW,2013-06-09 09:17:00,
2013-06-09 02:18:00,72.0,23.9,29.95,South,180,1.6,4.3,17,0.00,,,0.00,WUHU216HW,2013-06-09 09:18:00,
2013-06-09 02:20:00,71.8,23.8,29.95,SW,225,1.1,3.6,17,0.00,,,0.00,WUHU216HW,2013-06-09 09:20:00,
2013-06-09 02:22:00,71.8,23.8,29.95,SW,225,2.0,3.6,17,0.00,,,0.00,WUHU216HW,2013-06-09 09:22:00,
2013-06-09 02:23:00,71.6,23.6,29.95,SSW,203,1.3,3.4,17,0.00,,,0.00,WUHU216HW,2013-06-09 09:23:00,
2013-06-09 02:25:00,71.6,23.6,29.95,WSW,248,2.5,3.4,17,0.00,,,0.00,WUHU216HW,2013-06-09 09:25:00,
2013-06-09 02:27:00,71.5,23.4,29.95,SW,225,1.6,3.4,17,0.00,,,0.00,WUHU216HW,2013-06-09 09:27:00,
2013-06-09 02:28:00,71.5,23.4,29.95,SSW,203,2.7,2.7,17,0.00,,,0.00,WUHU216HW,2013-06-09 09:28:00,
2013-06-09 02:29:00,71.3,23.3,29.95,SW,225,2.0,2.7,17,0.00,,,0.00,WUHU216HW,2013-06-09 09:29:00,
2013-06-09 02:30:00,71.3,23.3,29.95,SSW,203,2.0,2.7,17,0.00,,,0.00,WUHU216HW,2013-06-09 09:30:00,
2013-06-09 02:32:00,71.1,23.1,29.95,SSW,203,2.7,3.4,17,0.00,,,0.00,WUHU216HW,2013-06-09 09:32:00,
2013-06-09 02:33:00,71.1,24.8,29.95,SW,225,2.5,4.0,18,0.00,,,0.00,WUHU216HW,2013-06-09 09:33:00,
2013-06-09 02:34:00,70.9,24.7,29.95,SW,225,2.2,4.0,18,0.00,,,0.00,WUHU216HW,2013-06-09 09:34:00,
2013-06-09 02:35:00,70.9,24.7,29.95,SW,225,1.1,4.0,18,0.00,,,0.00,WUHU216HW,2013-06-09 09:35:00,
2013-06-09 02:37:00,70.9,24.7,29.95,WSW,248,1.8,4.0,18,0.00,,,0.00,WUHU216HW,2013-06-09 09:37:00,
2013-06-09 02:38:00,70.9,24.7,29.95,SSW,203,1.6,4.0,18,0.00,,,0.00,WUHU216HW,2013-06-09 09:38:00,
2013-06-09 02:39:00,70.9,24.7,29.95,SSW,203,1.8,4.0,18,0.00,,,0.00,WUHU216HW,2013-06-09 09:39:00,
2013-06-09 02:40:00,70.7,24.5,29.95,SSW,203,2.2,4.0,18,0.00,,,0.00,WUHU216HW,2013-06-09 09:40:00,
2013-06-09 02:42:00,70.7,24.5,29.95,WSW,248,3.8,4.0,18,0.00,,,0.00,WUHU216HW,2013-06-09 09:42:00,
2013-06-09 02:43:00,70.7,24.5,29.95,SSW,203,2.7,3.8,18,0.00,,,0.00,WUHU216HW,2013-06-09 09:43:00,
2013-06-09 02:44:00,70.7,24.5,29.95,SSW,203,3.6,3.8,18,0.00,,,0.00,WUHU216HW,2013-06-09 09:44:00,
2013-06-09 02:45:00,70.7,24.5,29.94,WSW,248,1.1,3.8,18,0.00,,,0.00,WUHU216HW,2013-06-09 09:45:00,
2013-06-09 02:47:00,70.6,24.3,29.95,WSW,248,1.8,4.0,18,0.00,,,0.00,WUHU216HW,2013-06-09 09:47:00,
2013-06-09 02:48:00,70.6,24.3,29.95,SSW,203,0.7,4.0,18,0.00,,,0.00,WUHU216HW,2013-06-09 09:48:00,
2013-06-09 02:49:00,70.6,24.3,29.94,South,180,0.9,4.0,18,0.00,,,0.00,WUHU216HW,2013-06-09 09:49:00,
2013-06-09 02:50:00,70.6,24.3,29.94,SW,225,2.0,4.0,18,0.00,,,0.00,WUHU216HW,2013-06-09 09:50:00,
2013-06-09 02:53:00,70.4,24.2,29.95,WSW,248,0.0,4.0,18,0.00,,,0.00,WUHU216HW,2013-06-09 09:53:00,
2013-06-09 02:54:00,70.2,24.0,29.95,SSW,203,1.1,4.0,18,0.00,,,0.00,WUHU216HW,2013-06-09 09:54:00,
2013-06-09 02:55:00,70.2,24.0,29.95,South,180,1.6,4.0,18,0.00,,,0.00,WUHU216HW,2013-06-09 09:55:00,
2013-06-09 02:58:00,70.2,24.0,29.95,SSE,158,3.4,3.4,18,0.00,,,0.00,WUHU216HW,2013-06-09 09:58:00,
2013-06-09 02:59:00,70.0,24.0,29.95,SSE,158,2.5,3.4,18,0.00,,,0.00,WUHU216HW,2013-06-09 09:59:00,
2013-06-09 03:00:00,70.0,24.0,29.95,SSE,158,0.9,3.4,18,0.00,,,0.00,WUHU216HW,2013-06-09 10:00:00,
2013-06-09 03:01:00,69.8,25.4,29.95,South,180,1.1,3.4,19,0.00,,,0.00,WUHU216HW,2013-06-09 10:01:00,
2013-06-09 03:03:00,69.5,25.1,29.95,West,270,0.2,3.4,19,0.00,,,0.00,WUHU216HW,2013-06-09 10:03:00,
2013-06-09 03:04:00,69.5,25.1,29.95,WSW,248,1.8,3.4,19,0.00,,,0.00,WUHU216HW,2013-06-09 10:04:00,
2013-06-09 03:05:00,69.3,24.9,29.95,SW,225,1.3,3.4,19,0.00,,,0.00,WUHU216HW,2013-06-09 10:05:00,
2013-06-09 03:06:00,69.1,24.9,29.95,SW,225,0.9,3.4,19,0.00,,,0.00,WUHU216HW,2013-06-09 10:06:00,
2013-06-09 03:08:00,68.9,24.7,29.95,SE,135,3.8,3.8,19,0.00,,,0.00,WUHU216HW,2013-06-09 10:08:00,
2013-06-09 03:09:00,68.8,24.6,29.95,SE,135,3.6,4.0,19,0.00,,,0.00,WUHU216HW,2013-06-09 10:09:00,
2013-06-09 03:10:00,68.8,24.6,29.95,SE,135,4.7,4.7,19,0.00,,,0.00,WUHU216HW,2013-06-09 10:10:00,
2013-06-09 03:11:00,68.8,24.6,29.95,SE,135,2.5,4.7,19,0.00,,,0.00,WUHU216HW,2013-06-09 10:11:00,
2013-06-09 03:12:00,68.8,24.6,29.95,SSE,158,2.2,4.7,19,0.00,,,0.00,WUHU216HW,2013-06-09 10:12:00,
2013-06-09 03:13:00,68.8,24.6,29.95,West,270,0.7,4.7,19,0.00,,,0.00,WUHU216HW,2013-06-09 10:13:00,
2013-06-09 03:14:00,68.8,24.6,29.95,WSW,248,4.0,4.7,19,0.00,,,0.00,WUHU216HW,2013-06-09 10:14:00,
2013-06-09 03:15:00,68.8,24.6,29.95,WSW,248,3.1,4.7,19,0.00,,,0.00,WUHU216HW,2013-06-09 10:15:00,
2013-06-09 03:17:00,68.9,24.7,29.95,WSW,248,1.1,4.7,19,0.00,,,0.00,WUHU216HW,2013-06-09 10:17:00,
2013-06-09 03:18:00,68.9,24.7,29.95,SW,225,0.7,4.7,19,0.00,,,0.00,WUHU216HW,2013-06-09 10:18:00,
2013-06-09 03:20:00,68.9,24.7,29.95,SSE,158,0.4,4.7,19,0.00,,,0.00,WUHU216HW,2013-06-09 10:20:00,
2013-06-09 03:22:00,69.1,24.9,29.95,SSE,158,0.7,4.0,19,0.00,,,0.00,WUHU216HW,2013-06-09 10:22:00,
2013-06-09 03:23:00,69.1,24.9,29.95,SE,135,0.7,4.0,19,0.00,,,0.00,WUHU216HW,2013-06-09 10:23:00,
2013-06-09 03:25:00,69.1,24.9,29.95,WNW,293,0.0,2.9,19,0.00,,,0.00,WUHU216HW,2013-06-09 10:25:00,
2013-06-09 03:26:00,69.1,24.9,29.95,NW,315,0.4,1.8,19,0.00,,,0.00,WUHU216HW,2013-06-09 10:26:00,
2013-06-09 03:27:00,69.1,24.9,29.95,WNW,293,0.0,1.8,19,0.00,,,0.00,WUHU216HW,2013-06-09 10:27:00,
2013-06-09 03:29:00,69.1,24.9,29.95,SW,225,1.1,1.1,19,0.00,,,0.00,WUHU216HW,2013-06-09 10:29:00,
2013-06-09 03:30:00,69.1,24.9,29.95,South,180,0.9,2.5,19,0.00,,,0.00,WUHU216HW,2013-06-09 10:30:00,
2013-06-09 03:31:00,69.1,24.9,29.95,SSE,158,0.7,2.5,19,0.00,,,0.00,WUHU216HW,2013-06-09 10:31:00,
2013-06-09 03:32:00,69.1,24.9,29.95,SSE,158,0.4,2.5,19,0.00,,,0.00,WUHU216HW,2013-06-09 10:32:00,
2013-06-09 03:34:00,69.1,24.9,29.95,SSE,158,0.0,2.5,19,0.00,,,0.00,WUHU216HW,2013-06-09 10:34:00,
2013-06-09 03:35:00,69.1,24.9,29.95,SE,135,0.0,2.5,19,0.00,,,0.00,WUHU216HW,2013-06-09 10:35:00,
2013-06-09 03:36:00,69.1,24.9,29.95,SE,135,0.0,2.5,19,0.00,,,0.00,WUHU216HW,2013-06-09 10:36:00,
2013-06-09 03:37:00,69.1,24.9,29.95,NE,45,1.3,2.5,19,0.00,,,0.00,WUHU216HW,2013-06-09 10:37:00,
2013-06-09 03:38:00,69.1,24.9,29.95,ENE,68,1.6,2.5,19,0.00,,,0.00,WUHU216HW,2013-06-09 10:38:00,
2013-06-09 03:39:00,69.1,24.9,29.95,ESE,113,1.8,2.5,19,0.00,,,0.00,WUHU216HW,2013-06-09 10:39:00,
2013-06-09 03:40:00,69.1,24.9,29.96,ESE,113,1.6,1.8,19,0.00,,,0.00,WUHU216HW,2013-06-09 10:40:00,
2013-06-09 03:41:00,69.1,24.9,29.95,ESE,113,1.3,1.8,19,0.00,,,0.00,WUHU216HW,2013-06-09 10:41:00,
2013-06-09 03:42:00,69.1,24.9,29.95,SE,135,1.1,1.8,19,0.00,,,0.00,WUHU216HW,2013-06-09 10:42:00,
2013-06-09 03:43:00,69.1,24.9,29.95,SE,135,0.9,1.8,19,0.00,,,0.00,WUHU216HW,2013-06-09 10:43:00,
2013-06-09 03:44:00,68.9,24.7,29.95,SSW,203,1.8,1.8,19,0.00,,,0.00,WUHU216HW,2013-06-09 10:44:00,
2013-06-09 03:46:00,68.9,24.7,29.95,South,180,2.2,2.5,19,0.00,,,0.00,WUHU216HW,2013-06-09 10:46:00,
2013-06-09 03:47:00,68.8,24.6,29.95,SSE,158,1.8,2.5,19,0.00,,,0.00,WUHU216HW,2013-06-09 10:47:00,
2013-06-09 03:49:00,68.6,24.4,29.96,SSE,158,2.5,2.5,19,0.00,,,0.00,WUHU216HW,2013-06-09 10:49:00,
2013-06-09 03:50:00,68.6,24.4,29.95,South,180,2.7,2.7,19,0.00,,,0.00,WUHU216HW,2013-06-09 10:50:00,
2013-06-09 03:51:00,68.4,25.8,29.95,South,180,2.7,2.7,20,0.00,,,0.00,WUHU216HW,2013-06-09 10:51:00,
2013-06-09 03:52:00,68.4,25.8,29.96,South,180,4.3,4.3,20,0.00,,,0.00,WUHU216HW,2013-06-09 10:52:00,
2013-06-09 03:54:00,68.4,26.8,29.96,South,180,4.7,4.7,21,0.00,,,0.00,WUHU216HW,2013-06-09 10:54:00,
2013-06-09 03:55:00,68.4,26.8,29.95,South,180,3.8,4.7,21,0.00,,,0.00,WUHU216HW,2013-06-09 10:55:00,
2013-06-09 03:57:00,68.4,26.8,29.95,South,180,2.7,4.7,21,0.00,,,0.00,WUHU216HW,2013-06-09 10:57:00,
2013-06-09 03:58:00,68.4,26.8,29.96,WSW,248,1.6,4.7,21,0.00,,,0.00,WUHU216HW,2013-06-09 10:58:00,
2013-06-09 03:59:00,68.4,26.8,29.95,WSW,248,2.2,4.7,21,0.00,,,0.00,WUHU216HW,2013-06-09 10:59:00,
2013-06-09 04:00:00,68.4,26.8,29.95,WSW,248,1.1,4.7,21,0.00,,,0.00,WUHU216HW,2013-06-09 11:00:00,
2013-06-09 04:02:00,68.4,26.8,29.95,WSW,248,0.9,4.7,21,0.00,,,0.00,WUHU216HW,2013-06-09 11:02:00,
2013-06-09 04:03:00,68.4,26.8,29.95,SW,225,1.3,4.7,21,0.00,,,0.00,WUHU216HW,2013-06-09 11:03:00,
2013-06-09 04:04:00,68.2,26.7,29.95,SW,225,1.1,4.7,21,0.00,,,0.00,WUHU216HW,2013-06-09 11:04:00,
2013-06-09 04:05:00,68.2,26.7,29.95,WSW,248,1.8,3.8,21,0.00,,,0.00,WUHU216HW,2013-06-09 11:05:00,
2013-06-09 04:07:00,68.2,26.7,29.96,SW,225,1.1,2.5,21,0.00,,,0.00,WUHU216HW,2013-06-09 11:07:00,
2013-06-09 04:09:00,68.2,26.7,29.95,South,180,2.5,2.5,21,0.00,,,0.00,WUHU216HW,2013-06-09 11:09:00,
2013-06-09 04:12:00,68.2,26.7,29.95,SW,225,1.6,3.1,21,0.00,,,0.00,WUHU216HW,2013-06-09 11:12:00,
2013-06-09 04:14:00,68.2,26.7,29.95,SSE,158,2.5,3.1,21,0.00,,,0.00,WUHU216HW,2013-06-09 11:14:00,
2013-06-09 04:17:00,68.0,26.6,29.95,WSW,248,0.4,3.1,21,0.00,,,0.00,WUHU216HW,2013-06-09 11:17:00,
2013-06-09 04:18:00,68.0,26.6,29.95,WSW,248,0.0,3.1,21,0.00,,,0.00,WUHU216HW,2013-06-09 11:18:00,
2013-06-09 04:19:00,68.0,26.6,29.95,WSW,248,0.0,3.1,21,0.00,,,0.00,WUHU216HW,2013-06-09 11:19:00,
2013-06-09 04:22:00,68.0,26.6,29.95,West,270,0.0,2.5,21,0.00,,,0.00,WUHU216HW,2013-06-09 11:22:00,
2013-06-09 04:23:00,67.9,26.4,29.95,West,270,0.0,2.5,21,0.00,,,0.00,WUHU216HW,2013-06-09 11:23:00,
2013-06-09 04:24:00,67.9,26.4,29.95,WSW,248,0.0,2.5,21,0.00,,,0.00,WUHU216HW,2013-06-09 11:24:00,
2013-06-09 04:27:00,67.7,27.2,29.95,WSW,248,4.0,4.0,22,0.00,,,0.00,WUHU216HW,2013-06-09 11:27:00,
2013-06-09 04:28:00,67.7,27.2,29.95,WSW,248,5.1,5.1,22,0.00,,,0.00,WUHU216HW,2013-06-09 11:28:00,
2013-06-09 04:29:00,67.7,27.2,29.95,WSW,248,2.5,5.1,22,0.00,,,0.00,WUHU216HW,2013-06-09 11:29:00,
2013-06-09 04:32:00,67.3,26.9,29.95,SSE,158,1.8,5.1,22,0.00,,,0.00,WUHU216HW,2013-06-09 11:32:00,
2013-06-09 04:33:00,67.3,26.9,29.95,SSE,158,1.6,5.1,22,0.00,,,0.00,WUHU216HW,2013-06-09 11:33:00,
2013-06-09 04:34:00,67.3,26.9,29.95,SW,225,0.9,5.1,22,0.00,,,0.00,WUHU216HW,2013-06-09 11:34:00,
2013-06-09 04:37:00,67.3,26.9,29.95,SSW,203,1.8,5.1,22,0.00,,,0.00,WUHU216HW,2013-06-09 11:37:00,
2013-06-09 04:38:00,67.1,26.7,29.95,SSW,203,1.1,4.0,22,0.00,,,0.00,WUHU216HW,2013-06-09 11:38:00,
2013-06-09 04:39:00,67.1,26.7,29.95,SSW,203,1.1,2.5,22,0.00,,,0.00,WUHU216HW,2013-06-09 11:39:00,
2013-06-09 04:43:00,67.0,26.6,29.95,WSW,248,1.8,2.2,22,0.00,,,0.00,WUHU216HW,2013-06-09 11:43:00,
2013-06-09 04:44:00,66.8,26.5,29.95,WSW,248,1.1,2.2,22,0.00,,,0.00,WUHU216HW,2013-06-09 11:44:00,
2013-06-09 04:45:00,66.8,26.5,29.95,WSW,248,0.9,2.2,22,0.00,,,0.00,WUHU216HW,2013-06-09 11:45:00,
2013-06-09 04:48:00,66.6,27.3,29.95,SW,225,1.8,2.5,23,0.00,,,0.00,WUHU216HW,2013-06-09 11:48:00,
2013-06-09 04:49:00,66.6,27.3,29.95,South,180,1.8,2.5,23,0.00,,,0.00,WUHU216HW,2013-06-09 11:49:00,
2013-06-09 04:50:00,66.6,26.3,29.95,SSE,158,1.3,2.5,22,0.00,,,0.00,WUHU216HW,2013-06-09 11:50:00,
2013-06-09 04:53:00,66.6,27.3,29.95,WSW,248,1.6,2.5,23,0.00,,,0.00,WUHU216HW,2013-06-09 11:53:00,
2013-06-09 04:54:00,66.6,27.3,29.95,SW,225,1.8,2.5,23,0.00,,,0.00,WUHU216HW,2013-06-09 11:54:00,
2013-06-09 04:55:00,66.4,27.1,29.95,SSW,203,1.6,2.5,23,0.00,,,0.00,WUHU216HW,2013-06-09 11:55:00,
2013-06-09 04:58:00,66.4,27.1,29.95,SW,225,1.6,2.5,23,0.00,,,0.00,WUHU216HW,2013-06-09 11:58:00,
2013-06-09 04:59:00,66.2,27.0,29.95,SW,225,1.8,2.5,23,0.00,,,0.00,WUHU216HW,2013-06-09 11:59:00,
2013-06-09 05:00:00,66.2,27.0,29.95,WSW,248,1.1,1.8,23,0.00,,,0.00,WUHU216HW,2013-06-09 12:00:00,
2013-06-09 05:04:00,66.2,27.0,29.95,SSW,203,2.5,2.9,23,0.00,,,0.00,WUHU216HW,2013-06-09 12:04:00,
2013-06-09 05:05:00,66.1,27.8,29.95,SSW,203,2.0,2.9,24,0.00,,,0.00,WUHU216HW,2013-06-09 12:05:00,
2013-06-09 05:09:00,65.9,27.6,29.95,SW,225,2.2,2.9,24,0.00,,,0.00,WUHU216HW,2013-06-09 12:09:00,
2013-06-09 05:10:00,65.9,27.6,29.95,WSW,248,1.8,2.9,24,0.00,,,0.00,WUHU216HW,2013-06-09 12:10:00,
2013-06-09 05:14:00,65.9,27.6,29.95,SSW,203,1.8,2.5,24,0.00,,,0.00,WUHU216HW,2013-06-09 12:14:00,
2013-06-09 05:15:00,65.9,27.6,29.95,SSW,203,1.8,2.5,24,0.00,,,0.00,WUHU216HW,2013-06-09 12:15:00,
2013-06-09 05:19:00,65.7,27.6,29.95,SW,225,1.8,2.5,24,0.00,,,0.00,WUHU216HW,2013-06-09 12:19:00,
2013-06-09 05:20:00,65.7,27.6,29.95,SSW,203,1.1,2.5,24,0.00,,,0.00,WUHU216HW,2013-06-09 12:20:00,
2013-06-09 05:24:00,65.5,28.4,29.95,SW,225,1.8,2.2,25,0.00,,,0.00,WUHU216HW,2013-06-09 12:24:00,
2013-06-09 05:25:00,65.7,28.5,29.95,SW,225,2.0,2.2,25,0.00,,,0.00,WUHU216HW,2013-06-09 12:25:00,
2013-06-09 05:26:00,65.5,28.4,29.95,SSW,203,1.8,2.2,25,0.00,,,0.00,WUHU216HW,2013-06-09 12:26:00,
2013-06-09 05:30:00,65.7,28.5,29.96,West,270,1.1,2.2,25,0.00,,,0.00,WUHU216HW,2013-06-09 12:30:00,
2013-06-09 05:31:00,65.9,28.7,29.95,West,270,1.1,2.2,25,0.00,,,0.00,WUHU216HW,2013-06-09 12:31:00,
2013-06-09 05:35:00,65.9,28.7,29.96,WSW,248,1.1,2.0,25,0.00,,,0.00,WUHU216HW,2013-06-09 12:35:00,
2013-06-09 05:36:00,65.7,28.5,29.96,WSW,248,1.1,1.8,25,0.00,,,0.00,WUHU216HW,2013-06-09 12:36:00,
2013-06-09 05:40:00,65.7,28.5,29.96,West,270,1.6,1.8,25,0.00,,,0.00,WUHU216HW,2013-06-09 12:40:00,
2013-06-09 05:41:00,65.5,28.4,29.96,West,270,2.0,2.0,25,0.00,,,0.00,WUHU216HW,2013-06-09 12:41:00,
2013-06-09 05:45:00,65.5,29.3,29.96,West,270,1.8,2.2,26,0.00,,,0.00,WUHU216HW,2013-06-09 12:45:00,
2013-06-09 05:46:00,65.7,29.5,29.96,West,270,1.3,2.2,26,0.00,,,0.00,WUHU216HW,2013-06-09 12:46:00,
2013-06-09 05:47:00,65.7,29.5,29.96,West,270,0.7,2.2,26,0.00,,,0.00,WUHU216HW,2013-06-09 12:47:00,
2013-06-09 05:50:00,65.9,29.7,29.96,SSE,158,3.1,3.1,26,0.00,,,0.00,WUHU216HW,2013-06-09 12:50:00,
2013-06-09 05:51:00,65.9,29.7,29.96,South,180,1.8,3.1,26,0.00,,,0.00,WUHU216HW,2013-06-09 12:51:00,
2013-06-09 05:52:00,65.9,29.7,29.96,SSW,203,0.7,3.1,26,0.00,,,0.00,WUHU216HW,2013-06-09 12:52:00,
2013-06-09 05:55:00,66.1,29.8,29.96,SW,225,1.3,3.1,26,0.00,,,0.00,WUHU216HW,2013-06-09 12:55:00,
2013-06-09 05:56:00,66.2,30.0,29.96,SSW,203,1.6,3.1,26,0.00,,,0.00,WUHU216HW,2013-06-09 12:56:00,
2013-06-09 05:57:00,66.2,30.0,29.96,SW,225,0.7,3.1,26,0.00,,,0.00,WUHU216HW,2013-06-09 12:57:00,
2013-06-09 06:01:00,66.4,30.2,29.97,SW,225,0.7,1.8,26,0.00,,,0.00,WUHU216HW,2013-06-09 13:01:00,
2013-06-09 06:02:00,66.4,30.2,29.97,SSW,203,1.1,1.8,26,0.00,,,0.00,WUHU216HW,2013-06-09 13:02:00,
2013-06-09 06:06:00,66.8,30.4,29.97,SSW,203,1.3,1.3,26,0.00,,,0.00,WUHU216HW,2013-06-09 13:06:00,
2013-06-09 06:07:00,67.0,30.6,29.97,SSW,203,1.3,1.3,26,0.00,,,0.00,WUHU216HW,2013-06-09 13:07:00,
2013-06-09 06:12:00,67.3,32.9,29.97,WSW,248,0.0,1.3,28,0.00,,,0.00,WUHU216HW,2013-06-09 13:12:00,
2013-06-09 06:17:00,68.2,35.7,29.97,WSW,248,0.0,1.3,30,0.00,,,0.00,WUHU216HW,2013-06-09 13:17:00,
2013-06-09 06:18:00,68.4,35.8,29.97,WSW,248,0.0,1.3,30,0.00,,,0.00,WUHU216HW,2013-06-09 13:18:00,
2013-06-09 06:22:00,68.9,37.0,29.97,WSW,248,0.0,0.0,31,0.00,,,0.00,WUHU216HW,2013-06-09 13:22:00,
2013-06-09 06:23:00,68.9,37.0,29.97,WSW,248,0.0,0.0,31,0.00,,,0.00,WUHU216HW,2013-06-09 13:23:00,
2013-06-09 06:27:00,69.5,36.7,29.97,WSW,248,0.0,0.0,30,0.00,,,0.00,WUHU216HW,2013-06-09 13:27:00,
2013-06-09 06:28:00,69.5,36.7,29.97,West,270,0.0,0.0,30,0.00,,,0.00,WUHU216HW,2013-06-09 13:28:00,
2013-06-09 06:32:00,70.2,37.5,29.97,NE,45,0.0,0.7,30,0.00,,,0.00,WUHU216HW,2013-06-09 13:32:00,
2013-06-09 06:33:00,70.4,37.5,29.98,NE,45,0.0,0.7,30,0.00,,,0.00,WUHU216HW,2013-06-09 13:33:00,
2013-06-09 06:34:00,70.4,37.5,29.97,NE,45,0.0,0.7,30,0.00,,,0.00,WUHU216HW,2013-06-09 13:34:00,
2013-06-09 06:38:00,70.9,38.1,29.98,NNE,23,0.4,0.7,30,0.00,,,0.00,WUHU216HW,2013-06-09 13:38:00,
2013-06-09 06:39:00,71.3,39.2,29.98,NNE,23,1.3,1.3,31,0.00,,,0.00,WUHU216HW,2013-06-09 13:39:00,
2013-06-09 06:43:00,72.0,39.7,29.98,NNE,23,0.4,1.6,31,0.00,,,0.00,WUHU216HW,2013-06-09 13:43:00,
2013-06-09 06:44:00,72.2,39.9,29.97,NE,45,0.4,1.6,31,0.00,,,0.00,WUHU216HW,2013-06-09 13:44:00,
2013-06-09 06:48:00,73.1,41.4,29.98,NE,45,1.6,1.8,32,0.00,,,0.00,WUHU216HW,2013-06-09 13:48:00,
2013-06-09 06:49:00,73.3,41.5,29.98,NE,45,1.1,2.0,32,0.00,,,0.00,WUHU216HW,2013-06-09 13:49:00,
2013-06-09 06:53:00,74.2,41.6,29.98,NE,45,1.3,2.0,31,0.00,,,0.00,WUHU216HW,2013-06-09 13:53:00,
2013-06-09 06:54:00,74.3,41.0,29.98,NNE,23,0.9,2.0,30,0.00,,,0.00,WUHU216HW,2013-06-09 13:54:00,
2013-06-09 06:58:00,74.9,41.4,29.98,NE,45,1.1,2.5,30,0.00,,,0.00,WUHU216HW,2013-06-09 13:58:00,
2013-06-09 06:59:00,75.1,41.6,29.98,NE,45,1.8,2.5,30,0.00,,,0.00,WUHU216HW,2013-06-09 13:59:00,
2013-06-09 07:00:00,75.2,42.5,29.98,NE,45,1.1,2.5,31,0.00,,,0.00,WUHU216HW,2013-06-09 14:00:00,
2013-06-09 07:03:00,75.6,42.1,29.98,ENE,68,2.2,2.5,30,0.00,,,0.00,WUHU216HW,2013-06-09 14:03:00,
2013-06-09 07:04:00,75.8,42.2,29.98,NNE,23,3.4,3.4,30,0.00,,,0.00,WUHU216HW,2013-06-09 14:04:00,
2013-06-09 07:05:00,76.0,42.4,29.98,NE,45,3.1,3.4,30,0.00,,,0.00,WUHU216HW,2013-06-09 14:05:00,
2013-06-09 07:08:00,76.5,42.9,29.98,ENE,68,2.0,3.4,30,0.00,,,0.00,WUHU216HW,2013-06-09 14:08:00,
2013-06-09 07:09:00,76.7,43.0,29.98,ENE,68,1.8,3.4,30,0.00,,,0.00,WUHU216HW,2013-06-09 14:09:00,
2013-06-09 07:10:00,76.7,43.0,29.99,ENE,68,1.6,3.4,30,0.00,,,0.00,WUHU216HW,2013-06-09 14:10:00,
2013-06-09 07:14:00,77.2,41.4,29.99,NE,45,1.6,3.4,28,0.00,,,0.00,WUHU216HW,2013-06-09 14:14:00,
2013-06-09 07:15:00,77.4,41.6,29.99,NNE,23,1.8,3.4,28,0.00,,,0.00,WUHU216HW,2013-06-09 14:15:00,
2013-06-09 07:19:00,77.8,41.9,29.99,North,0,1.3,3.4,28,0.00,,,0.00,WUHU216HW,2013-06-09 14:19:00,
2013-06-09 07:20:00,77.8,41.9,29.99,NNE,23,1.8,3.4,28,0.00,,,0.00,WUHU216HW,2013-06-09 14:20:00,
2013-06-09 07:21:00,77.9,42.0,29.99,NNE,23,1.8,3.4,28,0.00,,,0.00,WUHU216HW,2013-06-09 14:21:00,
2013-06-09 07:24:00,78.5,42.5,29.99,NE,45,1.8,3.4,28,0.00,,,0.00,WUHU216HW,2013-06-09 14:24:00,
2013-06-09 07:25:00,78.5,42.5,29.99,NE,45,2.9,3.4,28,0.00,,,0.00,WUHU216HW,2013-06-09 14:25:00,
2013-06-09 07:26:00,78.5,42.5,29.99,ENE,68,2.5,3.4,28,0.00,,,0.00,WUHU216HW,2013-06-09 14:26:00,
2013-06-09 07:29:00,79.0,42.9,29.99,NE,45,1.8,3.4,28,0.00,,,0.00,WUHU216HW,2013-06-09 14:29:00,
2013-06-09 07:30:00,79.2,43.0,29.99,NE,45,1.8,3.4,28,0.00,,,0.00,WUHU216HW,2013-06-09 14:30:00,
2013-06-09 07:32:00,79.4,42.2,29.99,North,0,0.4,3.4,27,0.00,,,0.00,WUHU216HW,2013-06-09 14:32:00,
2013-06-09 07:34:00,79.9,41.6,29.99,NE,45,1.6,3.4,26,0.00,,,0.00,WUHU216HW,2013-06-09 14:34:00,
2013-06-09 07:35:00,79.9,41.6,29.99,NNE,23,2.0,3.4,26,0.00,,,0.00,WUHU216HW,2013-06-09 14:35:00,
2013-06-09 07:37:00,80.1,41.8,29.99,NNE,23,1.3,3.4,26,0.00,,,0.00,WUHU216HW,2013-06-09 14:37:00,
2013-06-09 07:39:00,80.3,40.9,29.99,North,0,2.2,2.5,25,0.00,,,0.00,WUHU216HW,2013-06-09 14:39:00,
2013-06-09 07:41:00,80.5,40.1,29.99,NNE,23,1.6,2.5,24,0.00,,,0.00,WUHU216HW,2013-06-09 14:41:00,
2013-06-09 07:42:00,80.5,41.0,29.99,NE,45,1.8,2.5,25,0.00,,,0.00,WUHU216HW,2013-06-09 14:42:00,
2013-06-09 07:43:00,80.5,41.0,29.99,NNE,23,1.1,2.5,25,0.00,,,0.00,WUHU216HW,2013-06-09 14:43:00,
2013-06-09 07:45:00,80.6,40.1,29.99,NNE,23,2.5,2.5,24,0.00,,,0.00,WUHU216HW,2013-06-09 14:45:00,
2013-06-09 07:46:00,80.6,41.2,29.99,North,0,1.1,2.5,25,0.00,,,0.00,WUHU216HW,2013-06-09 14:46:00,
2013-06-09 07:47:00,80.8,40.3,29.99,North,0,1.1,2.5,24,0.00,,,0.00,WUHU216HW,2013-06-09 14:47:00,
2013-06-09 07:48:00,81.0,40.5,29.99,East,90,1.3,2.5,24,0.00,,,0.00,WUHU216HW,2013-06-09 14:48:00,
2013-06-09 07:50:00,81.0,41.5,29.99,NNW,338,0.4,2.5,25,0.00,,,0.00,WUHU216HW,2013-06-09 14:50:00,
2013-06-09 07:51:00,81.4,41.8,29.99,ENE,68,2.2,2.5,25,0.00,,,0.00,WUHU216HW,2013-06-09 14:51:00,
2013-06-09 07:52:00,81.4,42.8,29.99,NE,45,2.5,2.5,26,0.00,,,0.00,WUHU216HW,2013-06-09 14:52:00,
2013-06-09 07:53:00,81.4,41.8,30.00,ENE,68,1.8,2.5,25,0.00,,,0.00,WUHU216HW,2013-06-09 14:53:00,
2013-06-09 07:55:00,81.7,42.1,30.00,NNE,23,0.7,2.5,25,0.00,,,0.00,WUHU216HW,2013-06-09 14:55:00,
2013-06-09 07:56:00,81.7,42.1,30.00,ENE,68,2.5,2.5,25,0.00,,,0.00,WUHU216HW,2013-06-09 14:56:00,
2013-06-09 07:57:00,82.1,42.4,30.00,ENE,68,1.6,3.4,25,0.00,,,0.00,WUHU216HW,2013-06-09 14:57:00,
2013-06-09 07:58:00,81.9,42.2,30.00,ENE,68,1.6,3.4,25,0.00,,,0.00,WUHU216HW,2013-06-09 14:58:00,
2013-06-09 08:00:00,82.3,42.5,30.00,East,90,1.3,3.4,25,0.00,,,0.00,WUHU216HW,2013-06-09 15:00:00,
2013-06-09 08:01:00,82.4,42.7,30.00,NNE,23,1.8,3.4,25,0.00,,,0.00,WUHU216HW,2013-06-09 15:01:00,
2013-06-09 08:02:00,82.6,41.8,30.00,NNE,23,2.0,3.4,24,0.00,,,0.00,WUHU216HW,2013-06-09 15:02:00,
2013-06-09 08:03:00,82.8,42.9,30.00,NNE,23,2.0,3.4,25,0.00,,,0.00,WUHU216HW,2013-06-09 15:03:00,
2013-06-09 08:05:00,82.8,42.9,30.00,NE,45,4.0,4.0,25,0.00,,,0.00,WUHU216HW,2013-06-09 15:05:00,
2013-06-09 08:06:00,83.0,43.1,30.00,North,0,3.4,4.0,25,0.00,,,0.00,WUHU216HW,2013-06-09 15:06:00,
2013-06-09 08:07:00,83.2,42.2,30.00,North,0,0.4,4.0,24,0.00,,,0.00,WUHU216HW,2013-06-09 15:07:00,
2013-06-09 08:08:00,83.2,42.2,30.00,NNE,23,1.3,4.0,24,0.00,,,0.00,WUHU216HW,2013-06-09 15:08:00,
2013-06-09 08:09:00,83.2,41.1,30.00,North,0,0.9,4.0,23,0.00,,,0.00,WUHU216HW,2013-06-09 15:09:00,
2013-06-09 08:10:00,83.3,41.3,30.00,ENE,68,3.8,4.0,23,0.00,,,0.00,WUHU216HW,2013-06-09 15:10:00,
2013-06-09 08:12:00,83.3,42.4,30.00,ENE,68,3.1,4.0,24,0.00,,,0.00,WUHU216HW,2013-06-09 15:12:00,
2013-06-09 08:13:00,83.3,42.4,30.00,ENE,68,3.8,4.5,24,0.00,,,0.00,WUHU216HW,2013-06-09 15:13:00,
2013-06-09 08:14:00,83.3,42.4,30.00,ENE,68,4.0,4.5,24,0.00,,,0.00,WUHU216HW,2013-06-09 15:14:00,
2013-06-09 08:15:00,83.5,42.5,30.00,ENE,68,3.4,4.5,24,0.00,,,0.00,WUHU216HW,2013-06-09 15:15:00,
2013-06-09 08:17:00,83.7,42.7,30.00,ENE,68,3.8,4.5,24,0.00,,,0.00,WUHU216HW,2013-06-09 15:17:00,
2013-06-09 08:18:00,83.9,42.9,30.00,North,0,4.3,4.9,24,0.00,,,0.00,WUHU216HW,2013-06-09 15:18:00,
2013-06-09 08:19:00,83.9,41.8,30.00,NE,45,4.0,4.9,23,0.00,,,0.00,WUHU216HW,2013-06-09 15:19:00,
2013-06-09 08:20:00,83.9,41.8,30.00,North,0,1.6,4.9,23,0.00,,,0.00,WUHU216HW,2013-06-09 15:20:00,
2013-06-09 08:22:00,83.9,41.8,30.00,NNE,23,1.1,4.9,23,0.00,,,0.00,WUHU216HW,2013-06-09 15:22:00,
2013-06-09 08:23:00,83.9,41.8,30.00,North,0,3.1,4.9,23,0.00,,,0.00,WUHU216HW,2013-06-09 15:23:00,
2013-06-09 08:24:00,83.9,40.7,30.00,ENE,68,3.6,4.9,22,0.00,,,0.00,WUHU216HW,2013-06-09 15:24:00,
2013-06-09 08:25:00,84.1,42.0,30.00,East,90,2.5,4.9,23,0.00,,,0.00,WUHU216HW,2013-06-09 15:25:00,
2013-06-09 08:27:00,84.1,42.0,30.00,NE,45,2.0,4.3,23,0.00,,,0.00,WUHU216HW,2013-06-09 15:27:00,
2013-06-09 08:28:00,84.1,42.0,30.00,NE,45,3.8,4.3,23,0.00,,,0.00,WUHU216HW,2013-06-09 15:28:00,
2013-06-09 08:29:00,84.1,43.0,30.00,NE,45,4.7,4.7,24,0.00,,,0.00,WUHU216HW,2013-06-09 15:29:00,
2013-06-09 08:30:00,84.2,43.1,30.00,NNE,23,4.3,4.7,24,0.00,,,0.00,WUHU216HW,2013-06-09 15:30:00,
2013-06-09 08:32:00,84.2,42.0,30.00,NE,45,5.6,5.6,23,0.00,,,0.00,WUHU216HW,2013-06-09 15:32:00,
2013-06-09 08:33:00,84.2,42.0,30.00,NNE,23,4.7,5.6,23,0.00,,,0.00,WUHU216HW,2013-06-09 15:33:00,
2013-06-09 08:34:00,84.2,42.0,30.00,NE,45,1.6,5.6,23,0.00,,,0.00,WUHU216HW,2013-06-09 15:34:00,
2013-06-09 08:36:00,84.2,42.0,30.00,NE,45,4.5,6.7,23,0.00,,,0.00,WUHU216HW,2013-06-09 15:36:00,
2013-06-09 08:37:00,84.2,42.0,30.00,ENE,68,3.4,6.7,23,0.00,,,0.00,WUHU216HW,2013-06-09 15:37:00,
2013-06-09 08:39:00,84.2,42.0,30.00,East,90,3.8,6.7,23,0.00,,,0.00,WUHU216HW,2013-06-09 15:39:00,
2013-06-09 08:40:00,84.2,42.0,30.00,East,90,1.1,6.7,23,0.00,,,0.00,WUHU216HW,2013-06-09 15:40:00,
2013-06-09 08:41:00,84.4,42.2,30.00,SE,135,1.8,6.7,23,0.00,,,0.00,WUHU216HW,2013-06-09 15:41:00,
2013-06-09 08:42:00,84.4,42.2,30.00,NNE,23,0.7,6.7,23,0.00,,,0.00,WUHU216HW,2013-06-09 15:42:00,
2013-06-09 08:45:00,84.6,43.5,30.00,ENE,68,4.3,6.7,24,0.00,,,0.00,WUHU216HW,2013-06-09 15:45:00,
2013-06-09 08:46:00,84.8,43.6,30.00,ENE,68,2.2,6.7,24,0.00,,,0.00,WUHU216HW,2013-06-09 15:46:00,
2013-06-09 08:47:00,84.8,43.6,30.00,ENE,68,2.7,4.7,24,0.00,,,0.00,WUHU216HW,2013-06-09 15:47:00,
2013-06-09 08:48:00,84.8,43.6,30.00,ENE,68,1.1,4.7,24,0.00,,,0.00,WUHU216HW,2013-06-09 15:48:00,
2013-06-09 08:50:00,85.0,43.8,30.00,East,90,4.7,4.7,24,0.00,,,0.00,WUHU216HW,2013-06-09 15:50:00,
2013-06-09 08:52:00,85.1,43.9,30.00,ESE,113,3.1,4.7,24,0.00,,,0.00,WUHU216HW,2013-06-09 15:52:00,
2013-06-09 08:53:00,85.3,42.9,30.00,SE,135,2.5,4.7,23,0.00,,,0.00,WUHU216HW,2013-06-09 15:53:00,
2013-06-09 08:55:00,85.3,42.9,30.00,North,0,0.9,4.7,23,0.00,,,0.00,WUHU216HW,2013-06-09 15:55:00,
2013-06-09 08:58:00,85.5,43.1,30.00,ESE,113,2.5,4.7,23,0.00,,,0.00,WUHU216HW,2013-06-09 15:58:00,
2013-06-09 09:00:00,85.7,43.3,30.00,East,90,2.9,3.8,23,0.00,,,0.00,WUHU216HW,2013-06-09 16:00:00,
2013-06-09 09:01:00,85.7,43.3,30.00,East,90,2.9,3.8,23,0.00,,,0.00,WUHU216HW,2013-06-09 16:01:00,
2013-06-09 09:03:00,86.0,43.6,30.01,NE,45,3.1,4.0,23,0.00,,,0.00,WUHU216HW,2013-06-09 16:03:00,
2013-06-09 09:05:00,86.0,43.6,30.00,ENE,68,3.6,4.7,23,0.00,,,0.00,WUHU216HW,2013-06-09 16:05:00,
2013-06-09 09:06:00,86.0,43.6,30.00,ENE,68,3.6,4.7,23,0.00,,,0.00,WUHU216HW,2013-06-09 16:06:00,
2013-06-09 09:08:00,86.0,43.6,30.00,ENE,68,2.0,4.7,23,0.00,,,0.00,WUHU216HW,2013-06-09 16:08:00,
2013-06-09 09:11:00,86.4,43.8,30.00,East,90,1.8,4.7,23,0.00,,,0.00,WUHU216HW,2013-06-09 16:11:00,
2013-06-09 09:12:00,86.4,43.8,30.00,ESE,113,1.1,4.7,23,0.00,,,0.00,WUHU216HW,2013-06-09 16:12:00,
2013-06-09 09:13:00,86.6,42.9,30.00,ENE,68,3.6,4.7,22,0.00,,,0.00,WUHU216HW,2013-06-09 16:13:00,
2013-06-09 09:14:00,86.6,44.0,30.00,NNE,23,3.6,4.0,23,0.00,,,0.00,WUHU216HW,2013-06-09 16:14:00,
2013-06-09 09:17:00,86.8,43.1,30.00,ENE,68,2.0,4.9,22,0.00,,,0.00,WUHU216HW,2013-06-09 16:17:00,
2013-06-09 09:18:00,86.9,43.3,30.00,NW,315,0.4,4.9,22,0.00,,,0.00,WUHU216HW,2013-06-09 16:18:00,
2013-06-09 09:19:00,86.9,42.2,30.00,NW,315,1.8,4.9,21,0.00,,,0.00,WUHU216HW,2013-06-09 16:19:00,
2013-06-09 09:22:00,87.1,36.1,30.00,SSE,158,1.8,4.9,17,0.00,,,0.00,WUHU216HW,2013-06-09 16:22:00,
2013-06-09 09:23:00,87.1,37.9,30.00,South,180,0.4,4.9,18,0.00,,,0.00,WUHU216HW,2013-06-09 16:23:00,
2013-06-09 09:24:00,87.3,39.7,30.00,SSE,158,1.8,4.9,19,0.00,,,0.00,WUHU216HW,2013-06-09 16:24:00,
2013-06-09 09:27:00,87.5,42.7,30.00,NE,45,2.0,5.8,21,0.00,,,0.00,WUHU216HW,2013-06-09 16:27:00,
2013-06-09 09:28:00,87.5,39.9,30.00,SSW,203,2.2,5.8,19,0.00,,,0.00,WUHU216HW,2013-06-09 16:28:00,
2013-06-09 09:29:00,87.7,38.4,30.00,SSW,203,1.8,5.8,18,0.00,,,0.00,WUHU216HW,2013-06-09 16:29:00,
2013-06-09 09:32:00,87.8,40.2,30.00,SSE,158,1.8,5.8,19,0.00,,,0.00,WUHU216HW,2013-06-09 16:32:00,
2013-06-09 09:33:00,87.8,40.2,30.00,SE,135,1.8,5.8,19,0.00,,,0.00,WUHU216HW,2013-06-09 16:33:00,
2013-06-09 09:34:00,88.0,40.3,30.00,WNW,293,1.3,5.8,19,0.00,,,0.00,WUHU216HW,2013-06-09 16:34:00,
2013-06-09 09:35:00,88.0,40.3,30.00,WNW,293,1.3,5.8,19,0.00,,,0.00,WUHU216HW,2013-06-09 16:35:00,
2013-06-09 09:37:00,88.2,33.6,30.00,NW,315,5.1,6.9,15,0.00,,,0.00,WUHU216HW,2013-06-09 16:37:00,
2013-06-09 09:38:00,88.4,33.8,30.00,NW,315,3.8,6.9,15,0.00,,,0.00,WUHU216HW,2013-06-09 16:38:00,
2013-06-09 09:39:00,88.4,30.3,30.00,NNW,338,4.5,6.9,13,0.00,,,0.00,WUHU216HW,2013-06-09 16:39:00,
2013-06-09 09:40:00,88.4,30.3,30.00,North,0,1.3,6.9,13,0.00,,,0.00,WUHU216HW,2013-06-09 16:40:00,
2013-06-09 09:43:00,88.6,35.6,30.00,NW,315,1.1,6.9,16,0.00,,,0.00,WUHU216HW,2013-06-09 16:43:00,
2013-06-09 09:44:00,88.6,33.8,30.00,NW,315,3.6,6.9,15,0.00,,,0.00,WUHU216HW,2013-06-09 16:44:00,
2013-06-09 09:45:00,88.6,30.3,29.99,NW,315,3.4,6.9,13,0.00,,,0.00,WUHU216HW,2013-06-09 16:45:00,
2013-06-09 09:48:00,88.9,37.6,30.00,NNE,23,5.6,6.9,17,0.00,,,0.00,WUHU216HW,2013-06-09 16:48:00,
2013-06-09 09:49:00,88.7,37.4,30.00,North,0,5.4,6.9,17,0.00,,,0.00,WUHU216HW,2013-06-09 16:49:00,
2013-06-09 09:50:00,88.7,34.0,30.00,SSW,203,1.1,6.9,15,0.00,,,0.00,WUHU216HW,2013-06-09 16:50:00,
2013-06-09 09:53:00,88.9,30.6,29.99,North,0,3.8,9.6,13,0.00,,,0.00,WUHU216HW,2013-06-09 16:53:00,
2013-06-09 09:54:00,88.9,34.1,30.00,North,0,4.7,9.6,15,0.00,,,0.00,WUHU216HW,2013-06-09 16:54:00,
2013-06-09 09:55:00,88.9,28.9,30.00,NNW,338,4.9,9.6,12,0.00,,,0.00,WUHU216HW,2013-06-09 16:55:00,
2013-06-09 09:58:00,89.1,25.6,30.00,NNW,338,6.7,12.8,10,0.00,,,0.00,WUHU216HW,2013-06-09 16:58:00,
2013-06-09 09:59:00,89.1,25.6,29.99,NNW,338,9.6,12.8,10,0.00,,,0.00,WUHU216HW,2013-06-09 16:59:00,
2013-06-09 10:00:00,89.1,27.3,30.00,North,0,4.9,12.8,11,0.00,,,0.00,WUHU216HW,2013-06-09 17:00:00,
2013-06-09 10:01:00,89.1,27.3,30.00,NNW,338,3.4,12.8,11,0.00,,,0.00,WUHU216HW,2013-06-09 17:01:00,
2013-06-09 10:04:00,89.3,27.5,30.00,WNW,293,3.4,12.8,11,0.00,,,0.00,WUHU216HW,2013-06-09 17:04:00,
2013-06-09 10:06:00,89.3,25.7,30.00,NW,315,12.1,12.8,10,0.00,,,0.00,WUHU216HW,2013-06-09 17:06:00,
2013-06-09 10:09:00,89.5,25.8,30.00,North,0,6.3,12.1,10,0.00,,,0.00,WUHU216HW,2013-06-09 17:09:00,
2013-06-09 10:10:00,89.6,25.9,30.00,NW,315,4.5,12.1,10,0.00,,,0.00,WUHU216HW,2013-06-09 17:10:00,
2013-06-09 10:11:00,89.6,25.9,30.00,NW,315,9.2,12.1,10,0.00,,,0.00,WUHU216HW,2013-06-09 17:11:00,
2013-06-09 10:14:00,89.6,25.9,29.99,NNW,338,12.8,12.8,10,0.00,,,0.00,WUHU216HW,2013-06-09 17:14:00,
2013-06-09 10:15:00,89.6,25.9,29.99,WNW,293,6.5,12.8,10,0.00,,,0.00,WUHU216HW,2013-06-09 17:15:00,
2013-06-09 10:17:00,89.8,26.1,30.00,NW,315,4.7,12.8,10,0.00,,,0.00,WUHU216HW,2013-06-09 17:17:00,
2013-06-09 10:19:00,89.8,26.1,30.00,NW,315,4.9,12.8,10,0.00,,,0.00,WUHU216HW,2013-06-09 17:19:00,
2013-06-09 10:20:00,90.0,26.2,29.99,NNW,338,5.6,12.8,10,0.00,,,0.00,WUHU216HW,2013-06-09 17:20:00,
2013-06-09 10:22:00,90.2,26.4,29.99,NW,315,7.2,12.8,8,0.00,,,0.00,WUHU216HW,2013-06-09 17:22:00,
2013-06-09 10:24:00,90.2,26.4,29.99,NNW,338,8.9,10.1,8,0.00,,,0.00,WUHU216HW,2013-06-09 17:24:00,
2013-06-09 10:25:00,90.2,26.4,30.00,NNW,338,8.3,10.5,8,0.00,,,0.00,WUHU216HW,2013-06-09 17:25:00,
2013-06-09 10:27:00,90.2,26.4,29.99,NW,315,11.6,11.6,8,0.00,,,0.00,WUHU216HW,2013-06-09 17:27:00,
2013-06-09 10:29:00,90.2,26.4,29.99,NNE,23,8.5,11.6,8,0.00,,,0.00,WUHU216HW,2013-06-09 17:29:00,
2013-06-09 10:30:00,90.0,26.2,29.99,NW,315,4.7,11.6,10,0.00,,,0.00,WUHU216HW,2013-06-09 17:30:00,
2013-06-09 10:32:00,90.2,26.4,29.99,NNW,338,5.4,11.6,10,0.00,,,0.00,WUHU216HW,2013-06-09 17:32:00,
2013-06-09 10:33:00,90.2,26.4,29.99,NW,315,5.4,11.6,9,0.00,,,0.00,WUHU216HW,2013-06-09 17:33:00,
2013-06-09 10:34:00,90.4,26.5,29.99,West,270,7.2,11.6,9,0.00,,,0.00,WUHU216HW,2013-06-09 17:34:00,
2013-06-09 10:35:00,90.4,26.5,29.99,NNW,338,4.0,11.6,9,0.00,,,0.00,WUHU216HW,2013-06-09 17:35:00,
2013-06-09 10:37:00,90.5,26.6,29.99,North,0,8.3,11.4,8,0.00,,,0.00,WUHU216HW,2013-06-09 17:37:00,
2013-06-09 10:38:00,90.7,26.8,29.99,NNE,23,6.5,11.4,8,0.00,,,0.00,WUHU216HW,2013-06-09 17:38:00,
2013-06-09 10:40:00,90.7,26.8,29.99,WSW,248,5.4,9.2,8,0.00,,,0.00,WUHU216HW,2013-06-09 17:40:00,
2013-06-09 10:42:00,90.9,26.9,29.99,North,0,6.0,9.2,10,0.00,,,0.00,WUHU216HW,2013-06-09 17:42:00,
2013-06-09 10:43:00,90.9,26.9,29.99,NNE,23,6.7,9.2,9,0.00,,,0.00,WUHU216HW,2013-06-09 17:43:00,
2013-06-09 10:45:00,91.1,27.1,29.99,NNW,338,8.5,15.7,7,0.00,,,0.00,WUHU216HW,2013-06-09 17:45:00,
2013-06-09 10:47:00,90.9,26.9,30.00,WNW,293,5.4,15.7,8,0.00,,,0.00,WUHU216HW,2013-06-09 17:47:00,
2013-06-09 10:48:00,90.9,26.9,29.99,NNW,338,5.1,15.7,8,0.00,,,0.00,WUHU216HW,2013-06-09 17:48:00,
2013-06-09 10:50:00,91.1,27.1,29.99,NNW,338,4.3,15.7,8,0.00,,,0.00,WUHU216HW,2013-06-09 17:50:00,
2013-06-09 10:53:00,91.3,27.2,29.99,NW,315,12.3,15.7,7,0.00,,,0.00,WUHU216HW,2013-06-09 17:53:00,
2013-06-09 10:55:00,91.4,27.4,29.99,WNW,293,9.2,12.5,7,0.00,,,0.00,WUHU216HW,2013-06-09 17:55:00,
2013-06-09 10:56:00,91.4,27.4,29.99,NW,315,6.5,12.5,7,0.00,,,0.00,WUHU216HW,2013-06-09 17:56:00,
2013-06-09 10:58:00,91.4,27.4,29.99,NNW,338,10.5,12.8,7,0.00,,,0.00,WUHU216HW,2013-06-09 17:58:00,
2013-06-09 11:00:00,91.4,27.4,29.99,NNW,338,6.7,12.8,7,0.00,,,0.00,WUHU216HW,2013-06-09 18:00:00,
2013-06-09 11:02:00,91.4,27.4,29.99,WNW,293,7.6,12.8,7,0.00,,,0.00,WUHU216HW,2013-06-09 18:02:00,
2013-06-09 11:03:00,91.4,27.4,29.99,NNW,338,6.9,12.8,7,0.00,,,0.00,WUHU216HW,2013-06-09 18:03:00,
2013-06-09 11:04:00,91.4,27.4,29.99,NW,315,9.2,12.8,7,0.00,,,0.00,WUHU216HW,2013-06-09 18:04:00,
2013-06-09 11:05:00,91.4,27.4,29.99,NNW,338,5.4,12.8,7,0.00,,,0.00,WUHU216HW,2013-06-09 18:05:00,
2013-06-09 11:07:00,91.4,27.4,29.99,NNW,338,9.4,12.8,7,0.00,,,0.00,WUHU216HW,2013-06-09 18:07:00,
2013-06-09 11:08:00,91.6,27.5,29.99,NW,315,10.7,12.3,7,0.00,,,0.00,WUHU216HW,2013-06-09 18:08:00,
2013-06-09 11:09:00,91.8,27.6,29.99,NW,315,11.2,12.3,7,0.00,,,0.00,WUHU216HW,2013-06-09 18:09:00,
2013-06-09 11:10:00,91.8,27.6,29.99,NW,315,10.3,13.4,7,0.00,,,0.00,WUHU216HW,2013-06-09 18:10:00,
2013-06-09 11:11:00,91.8,27.6,29.99,NW,315,12.3,13.4,7,0.00,,,0.00,WUHU216HW,2013-06-09 18:11:00,
2013-06-09 11:12:00,91.8,27.6,29.99,NNW,338,10.5,13.4,7,0.00,,,0.00,WUHU216HW,2013-06-09 18:12:00,
2013-06-09 11:13:00,91.6,27.5,29.99,NW,315,6.7,13.4,7,0.00,,,0.00,WUHU216HW,2013-06-09 18:13:00,
2013-06-09 11:14:00,91.6,27.5,29.99,NW,315,9.2,13.4,7,0.00,,,0.00,WUHU216HW,2013-06-09 18:14:00,
2013-06-09 11:16:00,91.6,27.5,29.99,NNW,338,7.6,13.4,7,0.00,,,0.00,WUHU216HW,2013-06-09 18:16:00,
2013-06-09 11:17:00,91.6,27.5,29.99,WSW,248,7.2,13.4,7,0.00,,,0.00,WUHU216HW,2013-06-09 18:17:00,
2013-06-09 11:19:00,91.8,27.6,29.99,NNE,23,5.6,13.4,7,0.00,,,0.00,WUHU216HW,2013-06-09 18:19:00,
2013-06-09 11:21:00,91.8,27.6,29.99,NW,315,9.8,12.3,7,0.00,,,0.00,WUHU216HW,2013-06-09 18:21:00,
2013-06-09 11:22:00,92.0,27.7,29.99,North,0,3.1,12.1,7,0.00,,,0.00,WUHU216HW,2013-06-09 18:22:00,
2013-06-09 11:24:00,92.2,27.9,29.99,West,270,7.6,11.2,7,0.00,,,0.00,WUHU216HW,2013-06-09 18:24:00,
2013-06-09 11:25:00,92.2,27.9,29.99,West,270,11.9,11.9,7,0.00,,,0.00,WUHU216HW,2013-06-09 18:25:00,
2013-06-09 11:26:00,92.3,28.0,29.99,WNW,293,9.8,11.9,6,0.00,,,0.00,WUHU216HW,2013-06-09 18:26:00,
2013-06-09 11:27:00,92.3,28.0,29.99,NW,315,10.3,11.9,6,0.00,,,0.00,WUHU216HW,2013-06-09 18:27:00,
2013-06-09 11:29:00,92.5,28.1,29.99,NNW,338,6.5,11.9,6,0.00,,,0.00,WUHU216HW,2013-06-09 18:29:00,
2013-06-09 11:30:00,92.5,28.1,29.99,WNW,293,5.4,11.9,6,0.00,,,0.00,WUHU216HW,2013-06-09 18:30:00,
2013-06-09 11:31:00,92.5,28.1,29.99,NNW,338,4.9,11.9,6,0.00,,,0.00,WUHU216HW,2013-06-09 18:31:00,
2013-06-09 11:32:00,92.7,28.3,29.99,North,0,4.0,11.9,6,0.00,,,0.00,WUHU216HW,2013-06-09 18:32:00,
2013-06-09 11:34:00,92.9,28.4,29.99,West,270,6.5,11.9,6,0.00,,,0.00,WUHU216HW,2013-06-09 18:34:00,
2013-06-09 11:35:00,93.1,28.5,29.99,NW,315,12.8,12.8,5,0.00,,,0.00,WUHU216HW,2013-06-09 18:35:00,
2013-06-09 11:37:00,93.1,28.5,29.99,West,270,8.7,12.8,6,0.00,,,0.00,WUHU216HW,2013-06-09 18:37:00,
2013-06-09 11:40:00,93.2,28.6,29.99,WSW,248,5.1,12.8,6,0.00,,,0.00,WUHU216HW,2013-06-09 18:40:00,
2013-06-09 11:42:00,93.4,28.8,29.99,NW,315,10.5,12.8,6,0.00,,,0.00,WUHU216HW,2013-06-09 18:42:00,
2013-06-09 11:43:00,93.6,28.9,29.99,NW,315,12.1,14.8,5,0.00,,,0.00,WUHU216HW,2013-06-09 18:43:00,
2013-06-09 11:45:00,93.4,28.8,29.99,NNW,338,9.8,14.8,5,0.00,,,0.00,WUHU216HW,2013-06-09 18:45:00,
2013-06-09 11:46:00,93.4,28.8,29.99,North,0,9.8,14.8,5,0.00,,,0.00,WUHU216HW,2013-06-09 18:46:00,
2013-06-09 11:47:00,93.2,28.6,29.99,NW,315,8.5,14.8,5,0.00,,,0.00,WUHU216HW,2013-06-09 18:47:00,
2013-06-09 11:48:00,93.2,28.6,29.99,NW,315,4.9,14.8,5,0.00,,,0.00,WUHU216HW,2013-06-09 18:48:00,
2013-06-09 11:49:00,93.2,28.6,29.99,NW,315,3.4,14.8,5,0.00,,,0.00,WUHU216HW,2013-06-09 18:49:00,
2013-06-09 11:50:00,93.2,28.6,29.99,NW,315,5.1,14.8,6,0.00,,,0.00,WUHU216HW,2013-06-09 18:50:00,
2013-06-09 11:51:00,93.2,28.6,29.99,NNW,338,3.4,14.8,6,0.00,,,0.00,WUHU216HW,2013-06-09 18:51:00,
2013-06-09 11:52:00,93.6,28.9,29.99,NW,315,4.0,14.8,6,0.00,,,0.00,WUHU216HW,2013-06-09 18:52:00,
2013-06-09 11:53:00,93.6,28.9,29.99,NNW,338,4.5,13.4,6,0.00,,,0.00,WUHU216HW,2013-06-09 18:53:00,
2013-06-09 11:54:00,93.8,29.1,29.99,NNW,338,3.8,10.5,6,0.00,,,0.00,WUHU216HW,2013-06-09 18:54:00,
2013-06-09 11:55:00,93.8,29.1,29.99,NNW,338,3.6,10.5,6,0.00,,,0.00,WUHU216HW,2013-06-09 18:55:00,
2013-06-09 11:57:00,94.0,29.2,29.99,WNW,293,6.9,8.5,6,0.00,,,0.00,WUHU216HW,2013-06-09 18:57:00,
2013-06-09 11:58:00,94.0,29.2,29.99,NW,315,10.5,11.4,6,0.00,,,0.00,WUHU216HW,2013-06-09 18:58:00,
2013-06-09 11:59:00,94.0,29.2,29.99,NW,315,9.6,13.4,5,0.00,,,0.00,WUHU216HW,2013-06-09 18:59:00,
2013-06-09 12:00:00,94.0,29.2,29.99,NNW,338,4.0,13.4,5,0.00,,,0.00,WUHU216HW,2013-06-09 19:00:00,
2013-06-09 12:02:00,94.0,29.2,29.99,West,270,4.5,13.4,5,0.00,,,0.00,WUHU216HW,2013-06-09 19:02:00,
2013-06-09 12:04:00,94.0,29.2,29.99,NW,315,7.6,13.4,5,0.00,,,0.00,WUHU216HW,2013-06-09 19:04:00,
2013-06-09 12:05:00,94.0,29.2,29.99,NNE,23,4.5,13.4,5,0.00,,,0.00,WUHU216HW,2013-06-09 19:05:00,
2013-06-09 12:06:00,94.0,29.2,29.99,NNW,338,6.9,13.4,6,0.00,,,0.00,WUHU216HW,2013-06-09 19:06:00,
2013-06-09 12:07:00,94.0,29.2,29.99,WNW,293,4.7,13.4,5,0.00,,,0.00,WUHU216HW,2013-06-09 19:07:00,
2013-06-09 12:09:00,94.1,29.3,29.99,NW,315,4.9,13.2,5,0.00,,,0.00,WUHU216HW,2013-06-09 19:09:00,
2013-06-09 12:10:00,94.3,29.5,29.98,NNW,338,5.4,12.1,5,0.00,,,0.00,WUHU216HW,2013-06-09 19:10:00,
2013-06-09 12:11:00,94.3,29.5,29.98,NW,315,5.4,12.1,5,0.00,,,0.00,WUHU216HW,2013-06-09 19:11:00,
2013-06-09 12:12:00,94.5,29.6,29.98,ENE,68,5.4,7.8,6,0.00,,,0.00,WUHU216HW,2013-06-09 19:12:00,
2013-06-09 12:13:00,94.7,29.8,29.98,NNW,338,6.9,7.8,6,0.00,,,0.00,WUHU216HW,2013-06-09 19:13:00,
2013-06-09 12:14:00,94.7,29.8,29.98,NW,315,8.9,8.9,5,0.00,,,0.00,WUHU216HW,2013-06-09 19:14:00,
2013-06-09 12:16:00,94.9,29.9,29.98,NW,315,8.5,12.1,5,0.00,,,0.00,WUHU216HW,2013-06-09 19:16:00,
2013-06-09 12:17:00,94.9,29.9,29.98,West,270,9.2,12.1,5,0.00,,,0.00,WUHU216HW,2013-06-09 19:17:00,
2013-06-09 12:18:00,94.9,29.9,29.98,NNW,338,9.2,12.1,5,0.00,,,0.00,WUHU216HW,2013-06-09 19:18:00,
2013-06-09 12:19:00,94.9,29.9,29.98,NNW,338,6.7,12.1,5,0.00,,,0.00,WUHU216HW,2013-06-09 19:19:00,
2013-06-09 12:21:00,95.0,30.1,29.99,NW,315,8.7,15.4,5,0.00,,,0.00,WUHU216HW,2013-06-09 19:21:00,
2013-06-09 12:22:00,94.9,29.9,29.99,NW,315,10.5,15.4,5,0.00,,,0.00,WUHU216HW,2013-06-09 19:22:00,
2013-06-09 12:23:00,94.7,29.8,29.98,NNW,338,6.3,15.4,5,0.00,,,0.00,WUHU216HW,2013-06-09 19:23:00,
2013-06-09 12:24:00,94.7,29.8,29.98,WNW,293,6.5,15.4,5,0.00,,,0.00,WUHU216HW,2013-06-09 19:24:00,
2013-06-09 12:26:00,94.5,29.6,29.98,WNW,293,4.9,15.4,5,0.00,,,0.00,WUHU216HW,2013-06-09 19:26:00,
2013-06-09 12:27:00,94.5,29.6,29.98,WNW,293,10.7,15.4,5,0.00,,,0.00,WUHU216HW,2013-06-09 19:27:00,
2013-06-09 12:28:00,94.5,29.6,29.98,North,0,6.9,15.4,5,0.00,,,0.00,WUHU216HW,2013-06-09 19:28:00,
2013-06-09 12:29:00,94.5,29.6,29.98,NNW,338,8.7,15.4,5,0.00,,,0.00,WUHU216HW,2013-06-09 19:29:00,
2013-06-09 12:31:00,94.7,29.8,29.98,WNW,293,11.0,13.6,5,0.00,,,0.00,WUHU216HW,2013-06-09 19:31:00,
2013-06-09 12:33:00,94.7,29.8,29.98,West,270,10.5,13.6,5,0.00,,,0.00,WUHU216HW,2013-06-09 19:33:00,
2013-06-09 12:35:00,94.7,29.8,29.98,NW,315,3.1,13.6,5,0.00,,,0.00,WUHU216HW,2013-06-09 19:35:00,
2013-06-09 12:36:00,94.9,29.9,29.98,NNW,338,7.2,13.6,5,0.00,,,0.00,WUHU216HW,2013-06-09 19:36:00,
2013-06-09 12:38:00,95.2,30.2,29.98,West,270,9.8,12.8,5,0.00,,,0.00,WUHU216HW,2013-06-09 19:38:00,
2013-06-09 12:40:00,95.4,30.3,29.98,WNW,293,5.1,12.8,5,0.00,,,0.00,WUHU216HW,2013-06-09 19:40:00,
2013-06-09 12:41:00,95.6,30.4,29.98,WNW,293,8.3,11.0,6,0.00,,,0.00,WUHU216HW,2013-06-09 19:41:00,
2013-06-09 12:43:00,95.6,30.4,29.98,WNW,293,8.7,11.0,5,0.00,,,0.00,WUHU216HW,2013-06-09 19:43:00,
2013-06-09 12:45:00,95.8,30.6,29.98,WNW,293,8.3,13.9,5,0.00,,,0.00,WUHU216HW,2013-06-09 19:45:00,
2013-06-09 12:46:00,95.6,30.4,29.98,NW,315,11.2,13.9,5,0.00,,,0.00,WUHU216HW,2013-06-09 19:46:00,
2013-06-09 12:48:00,95.4,30.3,29.98,NW,315,3.8,13.9,5,0.00,,,0.00,WUHU216HW,2013-06-09 19:48:00,
2013-06-09 12:51:00,95.4,30.3,29.98,NW,315,8.5,13.9,5,0.00,,,0.00,WUHU216HW,2013-06-09 19:51:00,
2013-06-09 12:52:00,95.4,30.3,29.98,SSE,158,3.8,13.9,5,0.00,,,0.00,WUHU216HW,2013-06-09 19:52:00,
2013-06-09 12:53:00,95.6,30.4,29.97,NNW,338,7.6,13.9,5,0.00,,,0.00,WUHU216HW,2013-06-09 19:53:00,
2013-06-09 12:54:00,95.6,30.4,29.98,North,0,6.9,13.9,5,0.00,,,0.00,WUHU216HW,2013-06-09 19:54:00,
2013-06-09 12:56:00,95.8,30.6,29.97,NNE,23,9.4,12.8,6,0.00,,,0.00,WUHU216HW,2013-06-09 19:56:00,
2013-06-09 12:57:00,95.9,30.7,29.97,NW,315,4.0,10.5,5,0.00,,,0.00,WUHU216HW,2013-06-09 19:57:00,
2013-06-09 12:58:00,96.1,30.8,29.98,NW,315,6.9,10.5,5,0.00,,,0.00,WUHU216HW,2013-06-09 19:58:00,
2013-06-09 12:59:00,96.3,31.0,29.97,NW,315,8.1,10.5,5,0.00,,,0.00,WUHU216HW,2013-06-09 19:59:00,
2013-06-09 13:01:00,96.3,31.0,29.97,North,0,5.8,11.4,5,0.00,,,0.00,WUHU216HW,2013-06-09 20:01:00,
2013-06-09 13:02:00,96.3,31.0,29.98,NW,315,5.6,11.4,5,0.00,,,0.00,WUHU216HW,2013-06-09 20:02:00,
2013-06-09 13:03:00,96.1,30.8,29.97,NNW,338,6.9,11.4,5,0.00,,,0.00,WUHU216HW,2013-06-09 20:03:00,
2013-06-09 13:04:00,96.1,30.8,29.97,North,0,5.4,11.4,5,0.00,,,0.00,WUHU216HW,2013-06-09 20:04:00,
2013-06-09 13:06:00,96.1,30.8,29.97,West,270,7.2,11.4,5,0.00,,,0.00,WUHU216HW,2013-06-09 20:06:00,
2013-06-09 13:07:00,96.1,30.8,29.97,NNW,338,10.5,12.5,5,0.00,,,0.00,WUHU216HW,2013-06-09 20:07:00,
2013-06-09 13:08:00,96.1,30.8,29.97,NNW,338,7.8,12.5,5,0.00,,,0.00,WUHU216HW,2013-06-09 20:08:00,
2013-06-09 13:09:00,96.1,30.8,29.97,NNW,338,8.5,12.5,5,0.00,,,0.00,WUHU216HW,2013-06-09 20:09:00,
2013-06-09 13:12:00,96.1,30.8,29.97,West,270,5.4,12.5,5,0.00,,,0.00,WUHU216HW,2013-06-09 20:12:00,
2013-06-09 13:13:00,96.1,30.8,29.97,NW,315,6.3,12.5,5,0.00,,,0.00,WUHU216HW,2013-06-09 20:13:00,
2013-06-09 13:14:00,96.5,31.1,29.97,West,270,8.5,12.5,6,0.00,,,0.00,WUHU216HW,2013-06-09 20:14:00,
2013-06-09 13:17:00,96.8,31.3,29.97,NNW,338,6.3,12.5,5,0.00,,,0.00,WUHU216HW,2013-06-09 20:17:00,
2013-06-09 13:18:00,96.8,31.3,29.97,NW,315,9.8,11.4,5,0.00,,,0.00,WUHU216HW,2013-06-09 20:18:00,
2013-06-09 13:20:00,96.7,31.2,29.97,NW,315,10.1,10.3,5,0.00,,,0.00,WUHU216HW,2013-06-09 20:20:00,
2013-06-09 13:22:00,96.7,31.2,29.97,NW,315,6.7,10.3,5,0.00,,,0.00,WUHU216HW,2013-06-09 20:22:00,
2013-06-09 13:23:00,96.5,31.1,29.97,West,270,7.6,10.3,5,0.00,,,0.00,WUHU216HW,2013-06-09 20:23:00,
2013-06-09 13:24:00,96.5,31.1,29.97,West,270,7.6,10.3,5,0.00,,,0.00,WUHU216HW,2013-06-09 20:24:00,
2013-06-09 13:25:00,96.5,31.1,29.97,NNW,338,5.8,11.4,5,0.00,,,0.00,WUHU216HW,2013-06-09 20:25:00,
2013-06-09 13:28:00,96.1,30.8,29.97,NW,315,12.3,12.3,5,0.00,,,0.00,WUHU216HW,2013-06-09 20:28:00,
2013-06-09 13:29:00,96.1,30.8,29.97,NNW,338,10.5,14.5,5,0.00,,,0.00,WUHU216HW,2013-06-09 20:29:00,
2013-06-09 13:30:00,95.9,30.7,29.97,NW,315,6.3,14.5,5,0.00,,,0.00,WUHU216HW,2013-06-09 20:30:00,
2013-06-09 13:31:00,95.8,30.6,29.97,NW,315,8.3,14.5,5,0.00,,,0.00,WUHU216HW,2013-06-09 20:31:00,
2013-06-09 13:33:00,95.8,30.6,29.97,West,270,6.9,14.5,5,0.00,,,0.00,WUHU216HW,2013-06-09 20:33:00,
2013-06-09 13:34:00,95.9,30.7,29.97,WNW,293,9.2,14.5,5,0.00,,,0.00,WUHU216HW,2013-06-09 20:34:00,
2013-06-09 13:35:00,96.1,30.8,29.97,North,0,5.6,14.5,5,0.00,,,0.00,WUHU216HW,2013-06-09 20:35:00,
2013-06-09 13:37:00,96.3,31.0,29.97,NNW,338,7.4,14.5,5,0.00,,,0.00,WUHU216HW,2013-06-09 20:37:00,
2013-06-09 13:38:00,96.3,31.0,29.97,NNW,338,5.8,14.5,5,0.00,,,0.00,WUHU216HW,2013-06-09 20:38:00,
2013-06-09 13:39:00,96.5,31.1,29.97,NNW,338,11.4,11.4,5,0.00,,,0.00,WUHU216HW,2013-06-09 20:39:00,
2013-06-09 13:40:00,96.5,31.1,29.97,North,0,7.4,11.4,5,0.00,,,0.00,WUHU216HW,2013-06-09 20:40:00,
2013-06-09 13:42:00,96.5,31.1,29.97,NNW,338,5.6,11.4,5,0.00,,,0.00,WUHU216HW,2013-06-09 20:42:00,
2013-06-09 13:43:00,96.5,31.1,29.96,NW,315,3.4,11.4,5,0.00,,,0.00,WUHU216HW,2013-06-09 20:43:00,
2013-06-09 13:44:00,96.7,31.2,29.96,NW,315,7.8,11.4,5,0.00,,,0.00,WUHU216HW,2013-06-09 20:44:00,
2013-06-09 13:45:00,96.7,31.2,29.97,North,0,4.0,11.4,5,0.00,,,0.00,WUHU216HW,2013-06-09 20:45:00,
2013-06-09 13:47:00,96.8,31.3,29.96,WNW,293,4.9,11.4,5,0.00,,,0.00,WUHU216HW,2013-06-09 20:47:00,
2013-06-09 13:48:00,97.0,31.5,29.96,NNE,23,5.1,11.4,5,0.00,,,0.00,WUHU216HW,2013-06-09 20:48:00,
2013-06-09 13:49:00,97.0,31.5,29.96,NNW,338,5.4,9.6,6,0.00,,,0.00,WUHU216HW,2013-06-09 20:49:00,
2013-06-09 13:50:00,97.0,31.5,29.96,NNW,338,7.8,9.6,5,0.00,,,0.00,WUHU216HW,2013-06-09 20:50:00,
2013-06-09 13:51:00,97.2,31.6,29.96,WNW,293,6.9,9.6,5,0.00,,,0.00,WUHU216HW,2013-06-09 20:51:00,
2013-06-09 13:53:00,97.4,31.8,29.96,NW,315,11.4,12.3,5,0.00,,,0.00,WUHU216HW,2013-06-09 20:53:00,
2013-06-09 13:54:00,97.2,31.6,29.96,NW,315,5.8,13.4,5,0.00,,,0.00,WUHU216HW,2013-06-09 20:54:00,
2013-06-09 13:55:00,97.2,31.6,29.96,North,0,7.6,13.4,5,0.00,,,0.00,WUHU216HW,2013-06-09 20:55:00,
2013-06-09 13:57:00,97.2,31.6,29.96,NW,315,6.0,13.4,5,0.00,,,0.00,WUHU216HW,2013-06-09 20:57:00,
2013-06-09 13:58:00,97.2,31.6,29.96,NW,315,7.6,13.4,5,0.00,,,0.00,WUHU216HW,2013-06-09 20:58:00,
2013-06-09 13:59:00,97.2,31.6,29.96,NW,315,6.9,13.4,5,0.00,,,0.00,WUHU216HW,2013-06-09 20:59:00,
2013-06-09 14:00:00,97.2,31.6,29.96,NW,315,9.2,13.4,5,0.00,,,0.00,WUHU216HW,2013-06-09 21:00:00,
2013-06-09 14:02:00,97.2,31.6,29.96,WNW,293,5.6,13.4,5,0.00,,,0.00,WUHU216HW,2013-06-09 21:02:00,
2013-06-09 14:03:00,97.2,31.6,29.96,WNW,293,4.9,13.4,5,0.00,,,0.00,WUHU216HW,2013-06-09 21:03:00,
2013-06-09 14:04:00,97.2,31.6,29.96,NW,315,2.7,13.4,5,0.00,,,0.00,WUHU216HW,2013-06-09 21:04:00,
2013-06-09 14:05:00,97.0,31.5,29.96,NW,315,7.6,10.1,5,0.00,,,0.00,WUHU216HW,2013-06-09 21:05:00,
2013-06-09 14:07:00,97.0,31.5,29.96,NE,45,4.3,10.1,5,0.00,,,0.00,WUHU216HW,2013-06-09 21:07:00,
2013-06-09 14:09:00,97.2,31.6,29.96,NNW,338,5.4,10.1,5,0.00,,,0.00,WUHU216HW,2013-06-09 21:09:00,
2013-06-09 14:10:00,97.2,31.6,29.95,SW,225,4.9,10.1,5,0.00,,,0.00,WUHU216HW,2013-06-09 21:10:00,
2013-06-09 14:12:00,97.4,31.8,29.96,North,0,9.2,13.2,5,0.00,,,0.00,WUHU216HW,2013-06-09 21:12:00,
2013-06-09 14:14:00,97.4,31.8,29.95,NW,315,17.7,17.7,4,0.00,,,0.00,WUHU216HW,2013-06-09 21:14:00,
2013-06-09 14:15:00,97.4,31.8,29.95,North,0,8.9,17.7,5,0.00,,,0.00,WUHU216HW,2013-06-09 21:15:00,
2013-06-09 14:17:00,97.0,31.5,29.95,NW,315,8.5,17.7,5,0.00,,,0.00,WUHU216HW,2013-06-09 21:17:00,
2013-06-09 14:19:00,96.8,31.3,29.95,West,270,8.5,17.7,5,0.00,,,0.00,WUHU216HW,2013-06-09 21:19:00,
2013-06-09 14:20:00,96.7,31.2,29.95,North,0,5.4,17.7,5,0.00,,,0.00,WUHU216HW,2013-06-09 21:20:00,
2013-06-09 14:22:00,96.7,31.2,29.95,North,0,4.5,17.7,5,0.00,,,0.00,WUHU216HW,2013-06-09 21:22:00,
2013-06-09 14:24:00,96.8,31.3,29.95,North,0,4.7,12.1,5,0.00,,,0.00,WUHU216HW,2013-06-09 21:24:00,
2013-06-09 14:25:00,97.0,31.5,29.95,WNW,293,13.4,13.4,5,0.00,,,0.00,WUHU216HW,2013-06-09 21:25:00,
2013-06-09 14:27:00,97.0,31.5,29.95,NNW,338,8.5,17.0,5,0.00,,,0.00,WUHU216HW,2013-06-09 21:27:00,
2013-06-09 14:29:00,97.0,31.5,29.95,WNW,293,9.2,17.0,5,0.00,,,0.00,WUHU216HW,2013-06-09 21:29:00,
2013-06-09 14:30:00,96.8,31.3,29.95,WNW,293,9.4,17.0,5,0.00,,,0.00,WUHU216HW,2013-06-09 21:30:00,
2013-06-09 14:31:00,96.8,31.3,29.95,WNW,293,6.9,17.0,5,0.00,,,0.00,WUHU216HW,2013-06-09 21:31:00,
2013-06-09 14:33:00,96.8,31.3,29.95,NNW,338,7.6,17.0,5,0.00,,,0.00,WUHU216HW,2013-06-09 21:33:00,
2013-06-09 14:34:00,97.0,31.5,29.95,NNW,338,6.3,17.0,5,0.00,,,0.00,WUHU216HW,2013-06-09 21:34:00,
2013-06-09 14:36:00,97.2,31.6,29.95,North,0,7.2,13.2,5,0.00,,,0.00,WUHU216HW,2013-06-09 21:36:00,
2013-06-09 14:39:00,97.2,31.6,29.94,NW,315,7.8,11.9,5,0.00,,,0.00,WUHU216HW,2013-06-09 21:39:00,
2013-06-09 14:42:00,97.4,31.8,29.94,WNW,293,8.5,12.8,5,0.00,,,0.00,WUHU216HW,2013-06-09 21:42:00,
2013-06-09 14:44:00,97.2,31.6,29.94,NNW,338,14.1,14.1,5,0.00,,,0.00,WUHU216HW,2013-06-09 21:44:00,
2013-06-09 14:45:00,97.2,31.6,29.94,North,0,9.6,14.1,5,0.00,,,0.00,WUHU216HW,2013-06-09 21:45:00,
2013-06-09 14:47:00,97.2,31.6,29.94,NNW,338,11.0,14.1,5,0.00,,,0.00,WUHU216HW,2013-06-09 21:47:00,
2013-06-09 14:49:00,97.2,31.6,29.94,NW,315,7.6,14.1,5,0.00,,,0.00,WUHU216HW,2013-06-09 21:49:00,
2013-06-09 14:50:00,97.0,31.5,29.94,NNW,338,4.3,14.1,5,0.00,,,0.00,WUHU216HW,2013-06-09 21:50:00,
2013-06-09 14:52:00,96.8,31.3,29.94,NNW,338,6.9,14.1,5,0.00,,,0.00,WUHU216HW,2013-06-09 21:52:00,
2013-06-09 14:53:00,97.0,31.5,29.94,NNW,338,6.9,14.1,5,0.00,,,0.00,WUHU216HW,2013-06-09 21:53:00,
2013-06-09 14:54:00,97.0,31.5,29.94,NW,315,5.4,13.4,5,0.00,,,0.00,WUHU216HW,2013-06-09 21:54:00,
2013-06-09 14:55:00,97.2,31.6,29.94,NW,315,7.6,12.5,5,0.00,,,0.00,WUHU216HW,2013-06-09 21:55:00,
2013-06-09 14:57:00,97.2,31.6,29.95,NNW,338,4.9,13.0,5,0.00,,,0.00,WUHU216HW,2013-06-09 21:57:00,
2013-06-09 14:58:00,97.2,31.6,29.95,NNW,338,4.9,13.0,5,0.00,,,0.00,WUHU216HW,2013-06-09 21:58:00,
2013-06-09 14:59:00,97.0,31.5,29.94,NNW,338,8.5,13.0,5,0.00,,,0.00,WUHU216HW,2013-06-09 21:59:00,
2013-06-09 15:00:00,97.0,31.5,29.94,West,270,6.3,13.0,5,0.00,,,0.00,WUHU216HW,2013-06-09 22:00:00,
2013-06-09 15:03:00,96.8,31.3,29.94,NNW,338,6.9,13.0,5,0.00,,,0.00,WUHU216HW,2013-06-09 22:03:00,
2013-06-09 15:04:00,96.8,31.3,29.94,NNW,338,8.5,13.0,6,0.00,,,0.00,WUHU216HW,2013-06-09 22:04:00,
2013-06-09 15:05:00,96.8,31.3,29.94,North,0,5.1,13.0,5,0.00,,,0.00,WUHU216HW,2013-06-09 22:05:00,
2013-06-09 15:08:00,97.0,31.5,29.94,NNW,338,6.7,11.2,5,0.00,,,0.00,WUHU216HW,2013-06-09 22:08:00,
2013-06-09 15:09:00,97.2,31.6,29.94,NNW,338,13.0,13.0,5,0.00,,,0.00,WUHU216HW,2013-06-09 22:09:00,
2013-06-09 15:10:00,97.2,31.6,29.94,NNW,338,8.1,16.3,5,0.00,,,0.00,WUHU216HW,2013-06-09 22:10:00,
2013-06-09 15:13:00,97.0,31.5,29.94,NNW,338,12.1,16.3,5,0.00,,,0.00,WUHU216HW,2013-06-09 22:13:00,
2013-06-09 15:15:00,96.8,31.3,29.94,West,270,10.5,16.3,5,0.00,,,0.00,WUHU216HW,2013-06-09 22:15:00,
2013-06-09 15:16:00,96.8,31.3,29.94,NNW,338,11.9,16.3,5,0.00,,,0.00,WUHU216HW,2013-06-09 22:16:00,
2013-06-09 15:18:00,96.8,31.3,29.94,North,0,9.4,16.3,5,0.00,,,0.00,WUHU216HW,2013-06-09 22:18:00,
2013-06-09 15:20:00,96.7,31.2,29.94,WNW,293,10.3,16.3,5,0.00,,,0.00,WUHU216HW,2013-06-09 22:20:00,
2013-06-09 15:21:00,96.8,31.3,29.94,NW,315,12.1,14.3,5,0.00,,,0.00,WUHU216HW,2013-06-09 22:21:00,
2013-06-09 15:22:00,96.8,31.3,29.94,NW,315,7.2,14.3,5,0.00,,,0.00,WUHU216HW,2013-06-09 22:22:00,
2013-06-09 15:23:00,96.8,31.3,29.94,NNW,338,12.1,14.3,5,0.00,,,0.00,WUHU216HW,2013-06-09 22:23:00,
2013-06-09 15:24:00,96.8,31.3,29.94,NNW,338,14.5,14.5,5,0.00,,,0.00,WUHU216HW,2013-06-09 22:24:00,
2013-06-09 15:25:00,96.7,31.2,29.94,WNW,293,4.5,14.5,5,0.00,,,0.00,WUHU216HW,2013-06-09 22:25:00,
2013-06-09 15:26:00,96.7,31.2,29.94,North,0,6.0,14.5,5,0.00,,,0.00,WUHU216HW,2013-06-09 22:26:00,
2013-06-09 15:27:00,96.7,31.2,29.94,North,0,10.5,14.5,5,0.00,,,0.00,WUHU216HW,2013-06-09 22:27:00,
2013-06-09 15:28:00,96.8,31.3,29.94,NNE,23,10.5,14.5,5,0.00,,,0.00,WUHU216HW,2013-06-09 22:28:00,
2013-06-09 15:29:00,96.8,31.3,29.94,North,0,9.4,14.5,5,0.00,,,0.00,WUHU216HW,2013-06-09 22:29:00,
2013-06-09 15:30:00,96.7,31.2,29.94,NNW,338,10.5,14.5,5,0.00,,,0.00,WUHU216HW,2013-06-09 22:30:00,
2013-06-09 15:31:00,96.8,31.3,29.94,NW,315,6.7,14.5,5,0.00,,,0.00,WUHU216HW,2013-06-09 22:31:00,
2013-06-09 15:32:00,96.7,31.2,29.94,WNW,293,9.2,14.5,5,0.00,,,0.00,WUHU216HW,2013-06-09 22:32:00,
2013-06-09 15:33:00,96.8,31.3,29.94,NNW,338,7.4,14.5,5,0.00,,,0.00,WUHU216HW,2013-06-09 22:33:00,
2013-06-09 15:34:00,96.8,31.3,29.94,NNW,338,2.9,14.5,5,0.00,,,0.00,WUHU216HW,2013-06-09 22:34:00,
2013-06-09 15:35:00,96.8,31.3,29.94,NNW,338,15.7,15.7,5,0.00,,,0.00,WUHU216HW,2013-06-09 22:35:00,
2013-06-09 15:36:00,96.7,31.2,29.94,NW,315,6.5,15.7,5,0.00,,,0.00,WUHU216HW,2013-06-09 22:36:00,
2013-06-09 15:37:00,96.8,31.3,29.94,WSW,248,4.7,15.7,5,0.00,,,0.00,WUHU216HW,2013-06-09 22:37:00,
2013-06-09 15:39:00,96.7,31.2,29.94,NW,315,6.7,15.7,5,0.00,,,0.00,WUHU216HW,2013-06-09 22:39:00,
2013-06-09 15:40:00,96.7,31.2,29.93,NW,315,4.7,15.7,5,0.00,,,0.00,WUHU216HW,2013-06-09 22:40:00,
2013-06-09 15:42:00,96.7,31.2,29.93,NW,315,6.7,15.7,5,0.00,,,0.00,WUHU216HW,2013-06-09 22:42:00,
2013-06-09 15:44:00,96.7,31.2,29.94,NW,315,13.2,16.3,5,0.00,,,0.00,WUHU216HW,2013-06-09 22:44:00,
2013-06-09 15:45:00,96.7,31.2,29.94,NNW,338,6.9,16.3,5,0.00,,,0.00,WUHU216HW,2013-06-09 22:45:00,
2013-06-09 15:47:00,96.5,31.1,29.93,NW,315,9.2,16.3,5,0.00,,,0.00,WUHU216HW,2013-06-09 22:47:00,
2013-06-09 15:48:00,96.5,31.1,29.93,NW,315,9.2,16.3,5,0.00,,,0.00,WUHU216HW,2013-06-09 22:48:00,
2013-06-09 15:49:00,96.5,31.1,29.93,WNW,293,9.8,16.3,5,0.00,,,0.00,WUHU216HW,2013-06-09 22:49:00,
2013-06-09 15:50:00,96.5,31.1,29.93,WNW,293,9.8,16.3,5,0.00,,,0.00,WUHU216HW,2013-06-09 22:50:00,
2013-06-09 15:51:00,96.7,31.2,29.93,WNW,293,9.6,16.3,5,0.00,,,0.00,WUHU216HW,2013-06-09 22:51:00,
2013-06-09 15:52:00,96.7,31.2,29.93,NNW,338,12.5,16.8,5,0.00,,,0.00,WUHU216HW,2013-06-09 22:52:00,
2013-06-09 15:53:00,96.7,31.2,29.93,North,0,9.2,16.8,5,0.00,,,0.00,WUHU216HW,2013-06-09 22:53:00,
2013-06-09 15:54:00,96.5,31.1,29.93,NNE,23,9.6,16.8,5,0.00,,,0.00,WUHU216HW,2013-06-09 22:54:00,
2013-06-09 15:55:00,96.5,31.1,29.93,NNW,338,6.0,16.8,5,0.00,,,0.00,WUHU216HW,2013-06-09 22:55:00,
2013-06-09 15:57:00,96.5,31.1,29.93,NW,315,6.9,16.8,6,0.00,,,0.00,WUHU216HW,2013-06-09 22:57:00,
2013-06-09 15:59:00,96.7,31.2,29.93,NW,315,9.2,16.8,6,0.00,,,0.00,WUHU216HW,2013-06-09 22:59:00,
2013-06-09 16:00:00,96.7,31.2,29.93,NNW,338,15.0,16.8,5,0.00,,,0.00,WUHU216HW,2013-06-09 23:00:00,
2013-06-09 16:01:00,96.7,31.2,29.93,NNW,338,9.8,16.8,5,0.00,,,0.00,WUHU216HW,2013-06-09 23:01:00,
2013-06-09 16:02:00,96.5,31.1,29.93,WNW,293,7.2,16.3,5,0.00,,,0.00,WUHU216HW,2013-06-09 23:02:00,
2013-06-09 16:04:00,96.5,31.1,29.93,NW,315,7.6,15.0,5,0.00,,,0.00,WUHU216HW,2013-06-09 23:04:00,
2013-06-09 16:05:00,96.5,31.1,29.93,NNE,23,4.3,15.0,6,0.00,,,0.00,WUHU216HW,2013-06-09 23:05:00,
2013-06-09 16:07:00,96.7,31.2,29.93,North,0,6.3,15.0,6,0.00,,,0.00,WUHU216HW,2013-06-09 23:07:00,
2013-06-09 16:09:00,96.7,31.2,29.93,NNW,338,6.7,15.0,6,0.00,,,0.00,WUHU216HW,2013-06-09 23:09:00,
2013-06-09 16:11:00,96.7,31.2,29.93,NNW,338,13.4,13.6,5,0.00,,,0.00,WUHU216HW,2013-06-09 23:11:00,
2013-06-09 16:12:00,96.7,31.2,29.93,WNW,293,10.5,13.6,5,0.00,,,0.00,WUHU216HW,2013-06-09 23:12:00,
2013-06-09 16:14:00,96.5,31.1,29.93,NNW,338,10.1,15.0,5,0.00,,,0.00,WUHU216HW,2013-06-09 23:14:00,
2013-06-09 16:16:00,96.3,31.0,29.93,NW,315,7.6,15.0,6,0.00,,,0.00,WUHU216HW,2013-06-09 23:16:00,
2013-06-09 16:17:00,96.3,31.0,29.93,NW,315,7.6,15.0,6,0.00,,,0.00,WUHU216HW,2013-06-09 23:17:00,
2013-06-09 16:18:00,96.3,31.0,29.92,WNW,293,7.6,15.0,6,0.00,,,0.00,WUHU216HW,2013-06-09 23:18:00,
2013-06-09 16:19:00,96.3,31.0,29.92,NNW,338,7.4,15.0,6,0.00,,,0.00,WUHU216HW,2013-06-09 23:19:00,
2013-06-09 16:21:00,96.3,31.0,29.92,NW,315,10.7,15.0,6,0.00,,,0.00,WUHU216HW,2013-06-09 23:21:00,
2013-06-09 16:22:00,96.3,31.0,29.93,NNW,338,11.0,15.0,6,0.00,,,0.00,WUHU216HW,2013-06-09 23:22:00,
2013-06-09 16:23:00,96.3,31.0,29.93,NW,315,7.6,15.0,5,0.00,,,0.00,WUHU216HW,2013-06-09 23:23:00,
2013-06-09 16:25:00,96.1,30.8,29.92,NW,315,4.7,13.0,6,0.00,,,0.00,WUHU216HW,2013-06-09 23:25:00,
2013-06-09 16:27:00,96.3,31.0,29.93,NNW,338,13.6,13.6,6,0.00,,,0.00,WUHU216HW,2013-06-09 23:27:00,
2013-06-09 16:28:00,96.3,31.0,29.92,NW,315,12.3,13.6,6,0.00,,,0.00,WUHU216HW,2013-06-09 23:28:00,
2013-06-09 16:30:00,96.3,31.0,29.92,NNW,338,11.2,14.1,6,0.00,,,0.00,WUHU216HW,2013-06-09 23:30:00,
2013-06-09 16:32:00,96.3,31.0,29.92,NNW,338,10.5,14.1,6,0.00,,,0.00,WUHU216HW,2013-06-09 23:32:00,
2013-06-09 16:33:00,96.3,31.0,29.92,NNW,338,7.8,14.1,6,0.00,,,0.00,WUHU216HW,2013-06-09 23:33:00,
2013-06-09 16:34:00,96.1,30.8,29.93,North,0,11.9,14.1,6,0.00,,,0.00,WUHU216HW,2013-06-09 23:34:00,
2013-06-09 16:35:00,96.1,30.8,29.93,NNW,338,15.7,16.1,6,0.00,,,0.00,WUHU216HW,2013-06-09 23:35:00,
2013-06-09 16:37:00,95.8,30.6,29.92,NW,315,12.1,16.1,6,0.00,,,0.00,WUHU216HW,2013-06-09 23:37:00,
2013-06-09 16:38:00,95.8,30.6,29.93,NW,315,10.1,16.1,6,0.00,,,0.00,WUHU216HW,2013-06-09 23:38:00,
2013-06-09 16:39:00,95.8,30.6,29.92,WNW,293,14.3,16.1,6,0.00,,,0.00,WUHU216HW,2013-06-09 23:39:00,
2013-06-09 16:40:00,95.8,30.6,29.92,NW,315,12.3,16.1,6,0.00,,,0.00,WUHU216HW,2013-06-09 23:40:00,
2013-06-09 16:42:00,95.8,30.6,29.92,NNW,338,11.0,16.1,6,0.00,,,0.00,WUHU216HW,2013-06-09 23:42:00,
2013-06-09 16:43:00,95.8,30.6,29.92,NNW,338,9.2,16.1,6,0.00,,,0.00,WUHU216HW,2013-06-09 23:43:00,
2013-06-09 16:44:00,95.8,30.6,29.92,NNW,338,12.8,15.7,6,0.00,,,0.00,WUHU216HW,2013-06-09 23:44:00,
2013-06-09 16:45:00,95.8,30.6,29.92,NNW,338,6.3,15.7,6,0.00,,,0.00,WUHU216HW,2013-06-09 23:45:00,
2013-06-09 16:48:00,95.8,30.6,29.92,NNW,338,8.7,14.5,6,0.00,,,0.00,WUHU216HW,2013-06-09 23:48:00,
2013-06-09 16:49:00,95.8,30.6,29.92,NW,315,4.9,14.5,6,0.00,,,0.00,WUHU216HW,2013-06-09 23:49:00,
2013-06-09 16:51:00,95.8,30.6,29.92,West,270,8.5,14.5,6,0.00,,,0.00,WUHU216HW,2013-06-09 23:51:00,
2013-06-09 16:53:00,95.8,30.6,29.92,NNW,338,6.9,14.5,5,0.00,,,0.00,WUHU216HW,2013-06-09 23:53:00,
2013-06-09 16:54:00,95.9,30.7,29.92,NW,315,10.3,12.8,5,0.00,,,0.00,WUHU216HW,2013-06-09 23:54:00,
2013-06-09 16:56:00,95.8,30.6,29.92,WNW,293,7.6,12.3,5,0.00,,,0.00,WUHU216HW,2013-06-09 23:56:00,
2013-06-09 16:58:00,95.8,30.6,29.92,WNW,293,12.1,12.8,5,0.00,,,0.00,WUHU216HW,2013-06-09 23:58:00,
2013-06-09 16:59:00,95.8,30.6,29.92,WSW,248,10.5,12.8,6,0.00,,,0.00,WUHU216HW,2013-06-09 23:59:00,
2013-06-09 17:00:00,95.8,30.6,29.92,WNW,293,9.8,13.2,6,0.00,,,0.00,WUHU216HW,2013-06-10 00:00:00,
2013-06-09 17:02:00,95.8,30.6,29.92,NNW,338,4.5,13.2,5,0.00,,,0.00,WUHU216HW,2013-06-10 00:02:00,
2013-06-09 17:03:00,95.8,30.6,29.92,NW,315,8.1,13.2,5,0.00,,,0.00,WUHU216HW,2013-06-10 00:03:00,
2013-06-09 17:04:00,95.8,30.6,29.92,NNW,338,5.8,13.2,5,0.00,,,0.00,WUHU216HW,2013-06-10 00:04:00,
2013-06-09 17:05:00,95.6,30.4,29.92,NNW,338,7.6,13.2,6,0.00,,,0.00,WUHU216HW,2013-06-10 00:05:00,
2013-06-09 17:07:00,95.6,30.4,29.92,North,0,9.4,13.2,5,0.00,,,0.00,WUHU216HW,2013-06-10 00:07:00,
2013-06-09 17:08:00,95.6,30.4,29.92,NW,315,8.1,13.2,5,0.00,,,0.00,WUHU216HW,2013-06-10 00:08:00,
2013-06-09 17:09:00,95.6,30.4,29.92,WNW,293,7.4,13.2,5,0.00,,,0.00,WUHU216HW,2013-06-10 00:09:00,
2013-06-09 17:10:00,95.6,30.4,29.92,WNW,293,9.8,12.1,5,0.00,,,0.00,WUHU216HW,2013-06-10 00:10:00,
2013-06-09 17:12:00,95.4,30.3,29.92,NNW,338,8.3,12.1,5,0.00,,,0.00,WUHU216HW,2013-06-10 00:12:00,
2013-06-09 17:13:00,95.4,30.3,29.92,NNW,338,8.1,11.0,5,0.00,,,0.00,WUHU216HW,2013-06-10 00:13:00,
2013-06-09 17:14:00,95.4,30.3,29.92,NNW,338,8.1,11.0,5,0.00,,,0.00,WUHU216HW,2013-06-10 00:14:00,
2013-06-09 17:15:00,95.4,30.3,29.92,NW,315,9.4,12.1,5,0.00,,,0.00,WUHU216HW,2013-06-10 00:15:00,
2013-06-09 17:18:00,95.4,30.3,29.92,NNW,338,7.8,13.2,6,0.00,,,0.00,WUHU216HW,2013-06-10 00:18:00,
2013-06-09 17:19:00,95.4,30.3,29.92,NNW,338,6.7,13.2,5,0.00,,,0.00,WUHU216HW,2013-06-10 00:19:00,
2013-06-09 17:20:00,95.4,30.3,29.92,NW,315,12.1,13.2,5,0.00,,,0.00,WUHU216HW,2013-06-10 00:20:00,
2013-06-09 17:23:00,95.2,30.2,29.92,WNW,293,11.4,13.2,5,0.00,,,0.00,WUHU216HW,2013-06-10 00:23:00,
2013-06-09 17:24:00,95.2,30.2,29.92,NW,315,12.8,13.2,5,0.00,,,0.00,WUHU216HW,2013-06-10 00:24:00,
2013-06-09 17:25:00,95.2,30.2,29.92,NW,315,9.4,13.2,6,0.00,,,0.00,WUHU216HW,2013-06-10 00:25:00,
2013-06-09 17:28:00,95.6,30.4,29.92,North,0,6.9,13.2,5,0.00,,,0.00,WUHU216HW,2013-06-10 00:28:00,
2013-06-09 17:29:00,95.6,30.4,29.92,NNW,338,9.4,13.2,5,0.00,,,0.00,WUHU216HW,2013-06-10 00:29:00,
2013-06-09 17:30:00,95.8,30.6,29.92,NNW,338,5.1,12.8,5,0.00,,,0.00,WUHU216HW,2013-06-10 00:30:00,
2013-06-09 17:31:00,95.8,30.6,29.92,NNW,338,7.6,12.8,5,0.00,,,0.00,WUHU216HW,2013-06-10 00:31:00,
2013-06-09 17:34:00,96.1,30.8,29.92,NNW,338,6.5,12.8,5,0.00,,,0.00,WUHU216HW,2013-06-10 00:34:00,
2013-06-09 17:35:00,96.1,30.8,29.92,WNW,293,8.5,11.4,5,0.00,,,0.00,WUHU216HW,2013-06-10 00:35:00,
2013-06-09 17:37:00,96.1,30.8,29.92,NNW,338,9.8,11.4,5,0.00,,,0.00,WUHU216HW,2013-06-10 00:37:00,
2013-06-09 17:39:00,95.8,30.6,29.92,West,270,8.7,11.4,5,0.00,,,0.00,WUHU216HW,2013-06-10 00:39:00,
2013-06-09 17:40:00,95.6,30.4,29.92,NW,315,12.3,12.3,5,0.00,,,0.00,WUHU216HW,2013-06-10 00:40:00,
2013-06-09 17:42:00,95.4,30.3,29.92,NW,315,10.7,13.4,5,0.00,,,0.00,WUHU216HW,2013-06-10 00:42:00,
2013-06-09 17:44:00,95.0,30.1,29.92,NW,315,8.7,13.4,5,0.00,,,0.00,WUHU216HW,2013-06-10 00:44:00,
2013-06-09 17:45:00,95.0,30.1,29.92,WNW,293,8.5,13.4,5,0.00,,,0.00,WUHU216HW,2013-06-10 00:45:00,
2013-06-09 17:47:00,94.7,29.8,29.92,North,0,8.5,13.4,5,0.00,,,0.00,WUHU216HW,2013-06-10 00:47:00,
2013-06-09 17:49:00,94.5,29.6,29.92,North,0,6.5,13.4,5,0.00,,,0.00,WUHU216HW,2013-06-10 00:49:00,
2013-06-09 17:50:00,94.5,29.6,29.92,WNW,293,13.2,13.4,6,0.00,,,0.00,WUHU216HW,2013-06-10 00:50:00,
2013-06-09 17:52:00,94.1,29.3,29.92,NW,315,9.2,13.2,6,0.00,,,0.00,WUHU216HW,2013-06-10 00:52:00,
2013-06-09 17:53:00,94.1,29.3,29.92,NW,315,9.2,13.2,6,0.00,,,0.00,WUHU216HW,2013-06-10 00:53:00,
2013-06-09 17:54:00,94.1,29.3,29.92,NW,315,11.4,13.2,6,0.00,,,0.00,WUHU216HW,2013-06-10 00:54:00,
2013-06-09 17:55:00,94.0,29.2,29.92,NNW,338,10.5,13.2,6,0.00,,,0.00,WUHU216HW,2013-06-10 00:55:00,
2013-06-09 17:56:00,94.0,29.2,29.92,WNW,293,9.4,13.2,6,0.00,,,0.00,WUHU216HW,2013-06-10 00:56:00,
2013-06-09 17:57:00,93.8,29.1,29.92,North,0,12.5,13.2,6,0.00,,,0.00,WUHU216HW,2013-06-10 00:57:00,
2013-06-09 17:58:00,93.8,29.1,29.92,NNW,338,13.2,13.2,6,0.00,,,0.00,WUHU216HW,2013-06-10 00:58:00,
2013-06-09 17:59:00,93.6,28.9,29.92,WNW,293,10.5,13.2,6,0.00,,,0.00,WUHU216HW,2013-06-10 00:59:00,
2013-06-09 18:00:00,93.6,28.9,29.92,NNW,338,12.8,13.2,6,0.00,,,0.00,WUHU216HW,2013-06-10 01:00:00,
2013-06-09 18:01:00,93.6,28.9,29.92,NNW,338,12.8,13.2,6,0.00,,,0.00,WUHU216HW,2013-06-10 01:01:00,
2013-06-09 18:03:00,93.2,28.6,29.92,NNW,338,9.2,15.0,6,0.00,,,0.00,WUHU216HW,2013-06-10 01:03:00,
2013-06-09 18:05:00,93.2,28.6,29.92,NW,315,8.5,15.0,6,0.00,,,0.00,WUHU216HW,2013-06-10 01:05:00,
2013-06-09 18:06:00,93.2,28.6,29.92,WNW,293,8.5,15.0,6,0.00,,,0.00,WUHU216HW,2013-06-10 01:06:00,
2013-06-09 18:08:00,93.2,28.6,29.92,NW,315,7.6,15.0,6,0.00,,,0.00,WUHU216HW,2013-06-10 01:08:00,
2013-06-09 18:10:00,93.1,28.5,29.92,NW,315,8.7,15.0,5,0.00,,,0.00,WUHU216HW,2013-06-10 01:10:00,
2013-06-09 18:11:00,93.1,28.5,29.92,WNW,293,8.5,15.0,5,0.00,,,0.00,WUHU216HW,2013-06-10 01:11:00,
2013-06-09 18:13:00,92.9,28.4,29.92,NW,315,12.1,14.3,5,0.00,,,0.00,WUHU216HW,2013-06-10 01:13:00,
2013-06-09 18:15:00,92.9,28.4,29.93,West,270,6.3,14.3,5,0.00,,,0.00,WUHU216HW,2013-06-10 01:15:00,
2013-06-09 18:16:00,92.7,28.3,29.92,NW,315,5.6,14.3,5,0.00,,,0.00,WUHU216HW,2013-06-10 01:16:00,
2013-06-09 18:18:00,92.7,28.3,29.93,WNW,293,5.8,14.3,5,0.00,,,0.00,WUHU216HW,2013-06-10 01:18:00,
2013-06-09 18:20:00,92.5,28.1,29.93,WNW,293,8.5,14.3,5,0.00,,,0.00,WUHU216HW,2013-06-10 01:20:00,
2013-06-09 18:22:00,92.5,28.1,29.93,West,270,7.2,14.3,5,0.00,,,0.00,WUHU216HW,2013-06-10 01:22:00,
2013-06-09 18:23:00,92.5,28.1,29.93,NW,315,11.6,11.6,5,0.00,,,0.00,WUHU216HW,2013-06-10 01:23:00,
2013-06-09 18:24:00,92.3,28.0,29.93,NNW,338,7.2,11.6,5,0.00,,,0.00,WUHU216HW,2013-06-10 01:24:00,
2013-06-09 18:25:00,92.3,28.0,29.93,NW,315,11.6,11.6,5,0.00,,,0.00,WUHU216HW,2013-06-10 01:25:00,
2013-06-09 18:27:00,92.2,27.9,29.93,North,0,12.8,14.3,5,0.00,,,0.00,WUHU216HW,2013-06-10 01:27:00,
2013-06-09 18:28:00,92.2,27.9,29.93,West,270,8.5,14.3,5,0.00,,,0.00,WUHU216HW,2013-06-10 01:28:00,
2013-06-09 18:29:00,92.2,27.9,29.93,NNW,338,6.9,14.3,5,0.00,,,0.00,WUHU216HW,2013-06-10 01:29:00,
2013-06-09 18:31:00,92.0,27.7,29.93,NW,315,10.5,14.3,5,0.00,,,0.00,WUHU216HW,2013-06-10 01:31:00,
2013-06-09 18:32:00,92.0,27.7,29.93,NNW,338,5.1,14.3,5,0.00,,,0.00,WUHU216HW,2013-06-10 01:32:00,
2013-06-09 18:34:00,91.8,27.6,29.93,NNW,338,8.7,14.3,5,0.00,,,0.00,WUHU216HW,2013-06-10 01:34:00,
2013-06-09 18:36:00,91.8,27.6,29.93,NW,315,4.0,14.3,6,0.00,,,0.00,WUHU216HW,2013-06-10 01:36:00,
2013-06-09 18:37:00,91.8,27.6,29.93,NNW,338,5.4,11.6,6,0.00,,,0.00,WUHU216HW,2013-06-10 01:37:00,
2013-06-09 18:39:00,91.6,27.5,29.93,WNW,293,6.9,11.6,6,0.00,,,0.00,WUHU216HW,2013-06-10 01:39:00,
2013-06-09 18:41:00,91.6,27.5,29.93,WNW,293,8.5,10.5,6,0.00,,,0.00,WUHU216HW,2013-06-10 01:41:00,
2013-06-09 18:42:00,91.6,27.5,29.93,North,0,7.4,12.1,5,0.00,,,0.00,WUHU216HW,2013-06-10 01:42:00,
2013-06-09 18:43:00,91.4,27.4,29.93,NW,315,10.5,12.1,5,0.00,,,0.00,WUHU216HW,2013-06-10 01:43:00,
2013-06-09 18:44:00,91.4,27.4,29.93,NNW,338,9.2,12.1,5,0.00,,,0.00,WUHU216HW,2013-06-10 01:44:00,
2013-06-09 18:46:00,91.3,27.2,29.93,North,0,6.5,12.1,5,0.00,,,0.00,WUHU216HW,2013-06-10 01:46:00,
2013-06-09 18:48:00,91.3,27.2,29.93,WNW,293,6.9,12.1,5,0.00,,,0.00,WUHU216HW,2013-06-10 01:48:00,
2013-06-09 18:49:00,91.1,27.1,29.93,NW,315,7.2,12.1,5,0.00,,,0.00,WUHU216HW,2013-06-10 01:49:00,
2013-06-09 18:52:00,90.9,26.9,29.93,NNW,338,6.9,10.5,5,0.00,,,0.00,WUHU216HW,2013-06-10 01:52:00,
2013-06-09 18:53:00,90.9,26.9,29.94,NNW,338,7.4,10.5,5,0.00,,,0.00,WUHU216HW,2013-06-10 01:53:00,
2013-06-09 18:54:00,90.9,26.9,29.93,NW,315,6.9,10.5,5,0.00,,,0.00,WUHU216HW,2013-06-10 01:54:00,
2013-06-09 18:58:00,90.5,26.6,29.94,NW,315,5.6,10.7,5,0.00,,,0.00,WUHU216HW,2013-06-10 01:58:00,
2013-06-09 18:59:00,90.5,26.6,29.93,NW,315,10.1,10.7,6,0.00,,,0.00,WUHU216HW,2013-06-10 01:59:00,
2013-06-09 19:00:00,90.4,26.5,29.94,NW,315,9.8,10.7,5,0.00,,,0.00,WUHU216HW,2013-06-10 02:00:00,
2013-06-09 19:03:00,90.4,26.5,29.94,WNW,293,7.2,12.1,6,0.00,,,0.00,WUHU216HW,2013-06-10 02:03:00,
2013-06-09 19:04:00,90.2,26.4,29.94,WNW,293,8.7,12.1,6,0.00,,,0.00,WUHU216HW,2013-06-10 02:04:00,
2013-06-09 19:05:00,90.2,26.4,29.93,NW,315,9.4,12.1,6,0.00,,,0.00,WUHU216HW,2013-06-10 02:05:00,
2013-06-09 19:08:00,89.8,26.1,29.93,NNW,338,9.6,13.0,6,0.00,,,0.00,WUHU216HW,2013-06-10 02:08:00,
2013-06-09 19:09:00,89.8,26.1,29.93,NW,315,7.6,13.0,6,0.00,,,0.00,WUHU216HW,2013-06-10 02:09:00,
2013-06-09 19:10:00,89.8,26.1,29.93,NW,315,4.0,13.0,6,0.00,,,0.00,WUHU216HW,2013-06-10 02:10:00,
2013-06-09 19:13:00,89.6,25.9,29.93,NW,315,6.0,13.0,6,0.00,,,0.00,WUHU216HW,2013-06-10 02:13:00,
2013-06-09 19:14:00,89.6,25.9,29.93,NW,315,6.0,13.0,6,0.00,,,0.00,WUHU216HW,2013-06-10 02:14:00,
2013-06-09 19:15:00,89.5,25.8,29.94,NW,315,5.4,13.0,6,0.00,,,0.00,WUHU216HW,2013-06-10 02:15:00,
2013-06-09 19:19:00,89.3,25.7,29.94,WNW,293,7.2,10.1,6,0.00,,,0.00,WUHU216HW,2013-06-10 02:19:00,
2013-06-09 19:20:00,89.1,25.6,29.94,NW,315,7.2,10.1,6,0.00,,,0.00,WUHU216HW,2013-06-10 02:20:00,
2013-06-09 19:21:00,89.1,25.6,29.94,NW,315,4.5,10.1,6,0.00,,,0.00,WUHU216HW,2013-06-10 02:21:00,
2013-06-09 19:24:00,88.9,25.4,29.94,NNW,338,6.0,10.1,6,0.00,,,0.00,WUHU216HW,2013-06-10 02:24:00,
2013-06-09 19:25:00,88.9,25.4,29.94,NW,315,5.6,10.1,6,0.00,,,0.00,WUHU216HW,2013-06-10 02:25:00,
2013-06-09 19:26:00,88.7,25.3,29.94,North,0,7.2,10.1,6,0.00,,,0.00,WUHU216HW,2013-06-10 02:26:00,
2013-06-09 19:29:00,88.6,25.2,29.94,West,270,5.4,9.2,6,0.00,,,0.00,WUHU216HW,2013-06-10 02:29:00,
2013-06-09 19:30:00,88.4,25.0,29.94,NNW,338,3.4,9.2,6,0.00,,,0.00,WUHU216HW,2013-06-10 02:30:00,
2013-06-09 19:31:00,88.4,25.0,29.94,North,0,4.9,9.2,6,0.00,,,0.00,WUHU216HW,2013-06-10 02:31:00,
2013-06-09 19:34:00,88.2,24.9,29.94,West,270,5.6,8.5,6,0.00,,,0.00,WUHU216HW,2013-06-10 02:34:00,
2013-06-09 19:35:00,88.2,24.9,29.94,NW,315,4.7,8.5,6,0.00,,,0.00,WUHU216HW,2013-06-10 02:35:00,
2013-06-09 19:36:00,88.0,24.8,29.94,NW,315,8.5,8.5,6,0.00,,,0.00,WUHU216HW,2013-06-10 02:36:00,
2013-06-09 19:39:00,87.8,24.7,29.94,NW,315,5.6,9.8,7,0.00,,,0.00,WUHU216HW,2013-06-10 02:39:00,
2013-06-09 19:40:00,87.8,24.7,29.94,NW,315,8.5,9.8,6,0.00,,,0.00,WUHU216HW,2013-06-10 02:40:00,
2013-06-09 19:41:00,87.8,24.7,29.94,NW,315,7.8,9.8,6,0.00,,,0.00,WUHU216HW,2013-06-10 02:41:00,
2013-06-09 19:44:00,87.5,24.4,29.94,NW,315,5.4,9.8,7,0.00,,,0.00,WUHU216HW,2013-06-10 02:44:00,
2013-06-09 19:45:00,87.5,24.4,29.94,WNW,293,7.6,9.8,7,0.00,,,0.00,WUHU216HW,2013-06-10 02:45:00,
2013-06-09 19:46:00,87.5,24.4,29.94,WNW,293,8.3,9.8,7,0.00,,,0.00,WUHU216HW,2013-06-10 02:46:00,
2013-06-09 19:49:00,87.3,24.2,29.94,West,270,5.4,9.8,7,0.00,,,0.00,WUHU216HW,2013-06-10 02:49:00,
2013-06-09 19:50:00,87.3,24.2,29.94,West,270,5.4,9.8,7,0.00,,,0.00,WUHU216HW,2013-06-10 02:50:00,
2013-06-09 19:51:00,87.3,24.2,29.94,WNW,293,6.7,9.8,7,0.00,,,0.00,WUHU216HW,2013-06-10 02:51:00,
2013-06-09 19:55:00,86.9,23.9,29.94,NW,315,5.8,9.2,7,0.00,,,0.00,WUHU216HW,2013-06-10 02:55:00,
2013-06-09 19:56:00,86.9,23.9,29.94,NW,315,4.9,9.2,7,0.00,,,0.00,WUHU216HW,2013-06-10 02:56:00,
2013-06-09 20:00:00,86.8,23.8,29.94,West,270,4.0,7.6,7,0.00,,,0.00,WUHU216HW,2013-06-10 03:00:00,
2013-06-09 20:01:00,86.8,23.8,29.94,West,270,4.7,7.6,7,0.00,,,0.00,WUHU216HW,2013-06-10 03:01:00,
2013-06-09 20:02:00,86.8,23.8,29.94,West,270,4.5,7.6,7,0.00,,,0.00,WUHU216HW,2013-06-10 03:02:00,
2013-06-09 20:05:00,86.6,23.7,29.94,WNW,293,7.6,8.1,7,0.00,,,0.00,WUHU216HW,2013-06-10 03:05:00,
2013-06-09 20:06:00,86.6,23.7,29.94,WNW,293,4.3,8.1,7,0.00,,,0.00,WUHU216HW,2013-06-10 03:06:00,
2013-06-09 20:07:00,86.4,23.5,29.94,WNW,293,6.3,9.4,7,0.00,,,0.00,WUHU216HW,2013-06-10 03:07:00,
2013-06-09 20:10:00,86.4,23.5,29.94,WSW,248,6.0,9.4,7,0.00,,,0.00,WUHU216HW,2013-06-10 03:10:00,
2013-06-09 20:11:00,86.4,23.5,29.94,NW,315,5.8,9.4,7,0.00,,,0.00,WUHU216HW,2013-06-10 03:11:00,
2013-06-09 20:12:00,86.4,23.5,29.94,West,270,5.4,9.4,7,0.00,,,0.00,WUHU216HW,2013-06-10 03:12:00,
2013-06-09 20:13:00,86.4,23.5,29.94,WNW,293,5.6,9.4,7,0.00,,,0.00,WUHU216HW,2013-06-10 03:13:00,
2013-06-09 20:15:00,86.4,23.5,29.94,NW,315,6.5,9.4,7,0.00,,,0.00,WUHU216HW,2013-06-10 03:15:00,
2013-06-09 20:16:00,86.2,23.4,29.94,WNW,293,5.4,9.4,7,0.00,,,0.00,WUHU216HW,2013-06-10 03:16:00,
2013-06-09 20:17:00,86.2,23.4,29.94,West,270,3.4,9.2,7,0.00,,,0.00,WUHU216HW,2013-06-10 03:17:00,
2013-06-09 20:18:00,86.2,23.4,29.94,WNW,293,5.1,9.2,7,0.00,,,0.00,WUHU216HW,2013-06-10 03:18:00,
2013-06-09 20:20:00,86.0,23.2,29.94,WNW,293,4.7,6.9,7,0.00,,,0.00,WUHU216HW,2013-06-10 03:20:00,
2013-06-09 20:21:00,86.0,23.2,29.94,WNW,293,3.8,6.9,7,0.00,,,0.00,WUHU216HW,2013-06-10 03:21:00,
2013-06-09 20:22:00,85.9,23.0,29.94,WNW,293,2.2,6.5,7,0.00,,,0.00,WUHU216HW,2013-06-10 03:22:00,
2013-06-09 20:23:00,85.9,23.0,29.95,West,270,2.9,6.5,7,0.00,,,0.00,WUHU216HW,2013-06-10 03:23:00,
2013-06-09 20:25:00,85.7,23.0,29.94,NW,315,2.0,5.4,7,0.00,,,0.00,WUHU216HW,2013-06-10 03:25:00,
2013-06-09 20:26:00,85.7,23.0,29.95,NNW,338,2.9,5.4,8,0.00,,,0.00,WUHU216HW,2013-06-10 03:26:00,
2013-06-09 20:27:00,85.7,23.0,29.95,WSW,248,4.0,5.1,7,0.00,,,0.00,WUHU216HW,2013-06-10 03:27:00,
2013-06-09 20:28:00,85.5,22.8,29.95,WNW,293,4.0,5.1,8,0.00,,,0.00,WUHU216HW,2013-06-10 03:28:00,
2013-06-09 20:30:00,85.3,22.7,29.95,WSW,248,2.5,4.7,8,0.00,,,0.00,WUHU216HW,2013-06-10 03:30:00,
2013-06-09 20:31:00,85.1,22.5,29.95,West,270,3.1,4.0,8,0.00,,,0.00,WUHU216HW,2013-06-10 03:31:00,
2013-06-09 20:32:00,85.0,22.3,29.95,WSW,248,4.9,5.1,8,0.00,,,0.00,WUHU216HW,2013-06-10 03:32:00,
2013-06-09 20:33:00,84.8,22.2,29.95,West,270,4.0,5.1,8,0.00,,,0.00,WUHU216HW,2013-06-10 03:33:00,
2013-06-09 20:35:00,84.4,22.0,29.95,West,270,4.0,5.1,8,0.00,,,0.00,WUHU216HW,2013-06-10 03:35:00,
2013-06-09 20:36:00,84.2,21.8,29.95,West,270,4.7,5.1,8,0.00,,,0.00,WUHU216HW,2013-06-10 03:36:00,
2013-06-09 20:37:00,83.9,21.5,29.95,WNW,293,3.4,5.1,9,0.00,,,0.00,WUHU216HW,2013-06-10 03:37:00,
2013-06-09 20:38:00,83.9,21.5,29.95,WNW,293,4.0,5.1,10,0.00,,,0.00,WUHU216HW,2013-06-10 03:38:00,
2013-06-09 20:40:00,83.5,21.2,29.95,West,270,4.5,5.1,10,0.00,,,0.00,WUHU216HW,2013-06-10 03:40:00,
2013-06-09 20:42:00,83.2,21.1,29.95,West,270,4.7,4.9,10,0.00,,,0.00,WUHU216HW,2013-06-10 03:42:00,
2013-06-09 20:43:00,83.2,21.1,29.95,WSW,248,4.3,4.9,10,0.00,,,0.00,WUHU216HW,2013-06-10 03:43:00,
2013-06-09 20:45:00,82.6,20.6,29.95,WNW,293,3.1,4.9,10,0.00,,,0.00,WUHU216HW,2013-06-10 03:45:00,
2013-06-09 20:47:00,82.4,20.5,29.96,WNW,293,2.9,4.9,10,0.00,,,0.00,WUHU216HW,2013-06-10 03:47:00,
2013-06-09 20:48:00,82.4,20.5,29.96,WSW,248,3.4,4.9,10,0.00,,,0.00,WUHU216HW,2013-06-10 03:48:00,
2013-06-09 20:51:00,82.1,20.3,29.95,WSW,248,3.6,4.9,10,0.00,,,0.00,WUHU216HW,2013-06-10 03:51:00,
2013-06-09 20:52:00,81.9,20.1,29.95,West,270,3.4,4.9,10,0.00,,,0.00,WUHU216HW,2013-06-10 03:52:00,
2013-06-09 20:53:00,81.9,20.1,29.95,WSW,248,3.4,4.7,10,0.00,,,0.00,WUHU216HW,2013-06-10 03:53:00,
2013-06-09 20:55:00,81.7,20.0,29.96,WSW,248,4.0,4.7,10,0.00,,,0.00,WUHU216HW,2013-06-10 03:55:00,
2013-06-09 20:56:00,81.5,19.8,29.96,WSW,248,4.7,4.7,10,0.00,,,0.00,WUHU216HW,2013-06-10 03:56:00,
2013-06-09 20:58:00,81.4,19.6,29.96,West,270,4.7,4.9,10,0.00,,,0.00,WUHU216HW,2013-06-10 03:58:00,
2013-06-09 20:59:00,81.4,19.6,29.96,WSW,248,6.9,6.9,10,0.00,,,0.00,WUHU216HW,2013-06-10 03:59:00,
2013-06-09 21:00:00,81.2,19.5,29.96,WSW,248,6.3,6.9,10,0.00,,,0.00,WUHU216HW,2013-06-10 04:00:00,
2013-06-09 21:01:00,81.0,19.4,29.96,WNW,293,4.0,6.9,10,0.00,,,0.00,WUHU216HW,2013-06-10 04:01:00,
2013-06-09 21:02:00,81.0,19.4,29.96,NW,315,5.8,6.9,10,0.00,,,0.00,WUHU216HW,2013-06-10 04:02:00,
2013-06-09 21:06:00,80.8,19.3,29.96,WNW,293,3.1,6.9,10,0.00,,,0.00,WUHU216HW,2013-06-10 04:06:00,
2013-06-09 21:07:00,80.8,19.3,29.96,WNW,293,3.8,6.9,10,0.00,,,0.00,WUHU216HW,2013-06-10 04:07:00,
2013-06-09 21:11:00,80.5,18.9,29.96,WNW,293,3.1,6.0,10,0.00,,,0.00,WUHU216HW,2013-06-10 04:11:00,
2013-06-09 21:12:00,80.5,18.9,29.96,WNW,293,3.6,5.6,10,0.00,,,0.00,WUHU216HW,2013-06-10 04:12:00,
2013-06-09 21:16:00,80.6,19.1,29.96,West,270,3.1,5.1,10,0.00,,,0.00,WUHU216HW,2013-06-10 04:16:00,
2013-06-09 21:17:00,80.6,19.1,29.96,WNW,293,4.7,5.1,10,0.00,,,0.00,WUHU216HW,2013-06-10 04:17:00,
2013-06-09 21:18:00,80.6,19.1,29.96,West,270,3.8,5.1,10,0.00,,,0.00,WUHU216HW,2013-06-10 04:18:00,
2013-06-09 21:21:00,80.6,20.8,29.97,SW,225,4.0,6.7,11,0.00,,,0.00,WUHU216HW,2013-06-10 04:21:00,
2013-06-09 21:22:00,80.6,20.8,29.96,West,270,4.0,6.7,11,0.00,,,0.00,WUHU216HW,2013-06-10 04:22:00,
2013-06-09 21:23:00,80.6,20.8,29.97,WSW,248,4.7,6.7,11,0.00,,,0.00,WUHU216HW,2013-06-10 04:23:00,
2013-06-09 21:26:00,80.6,20.8,29.97,WSW,248,4.9,6.7,11,0.00,,,0.00,WUHU216HW,2013-06-10 04:26:00,
2013-06-09 21:27:00,80.6,20.8,29.96,West,270,4.7,6.7,11,0.00,,,0.00,WUHU216HW,2013-06-10 04:27:00,
2013-06-09 21:28:00,80.6,20.8,29.96,West,270,5.4,6.7,11,0.00,,,0.00,WUHU216HW,2013-06-10 04:28:00,
2013-06-09 21:31:00,80.3,20.5,29.96,West,270,4.7,6.3,11,0.00,,,0.00,WUHU216HW,2013-06-10 04:31:00,
2013-06-09 21:32:00,80.3,22.1,29.97,WSW,248,3.4,6.3,12,0.00,,,0.00,WUHU216HW,2013-06-10 04:32:00,
2013-06-09 21:33:00,80.3,22.1,29.97,West,270,4.5,6.3,12,0.00,,,0.00,WUHU216HW,2013-06-10 04:33:00,
2013-06-09 21:36:00,79.9,21.9,29.97,West,270,6.3,6.3,12,0.00,,,0.00,WUHU216HW,2013-06-10 04:36:00,
2013-06-09 21:37:00,79.9,21.9,29.97,WNW,293,5.4,6.3,12,0.00,,,0.00,WUHU216HW,2013-06-10 04:37:00,
2013-06-09 21:38:00,79.9,21.9,29.97,West,270,3.8,6.3,12,0.00,,,0.00,WUHU216HW,2013-06-10 04:38:00,
2013-06-09 21:41:00,79.6,19.9,29.97,WSW,248,5.4,6.3,11,0.00,,,0.00,WUHU216HW,2013-06-10 04:41:00,
2013-06-09 21:42:00,79.6,19.9,29.97,West,270,4.5,6.3,11,0.00,,,0.00,WUHU216HW,2013-06-10 04:42:00,
2013-06-09 21:43:00,79.6,19.9,29.97,West,270,4.5,6.3,11,0.00,,,0.00,WUHU216HW,2013-06-10 04:43:00,
2013-06-09 21:44:00,79.6,19.9,29.97,West,270,5.8,7.4,11,0.00,,,0.00,WUHU216HW,2013-06-10 04:44:00,
2013-06-09 21:46:00,79.4,21.4,29.97,West,270,7.2,7.4,12,0.00,,,0.00,WUHU216HW,2013-06-10 04:46:00,
2013-06-09 21:48:00,79.4,21.4,29.97,West,270,4.3,7.4,12,0.00,,,0.00,WUHU216HW,2013-06-10 04:48:00,
2013-06-09 21:49:00,79.4,21.4,29.97,WSW,248,6.3,7.4,12,0.00,,,0.00,WUHU216HW,2013-06-10 04:49:00,
2013-06-09 21:51:00,79.4,21.4,29.97,WSW,248,4.9,8.7,12,0.00,,,0.00,WUHU216HW,2013-06-10 04:51:00,
2013-06-09 21:53:00,79.4,21.4,29.97,West,270,4.0,8.7,12,0.00,,,0.00,WUHU216HW,2013-06-10 04:53:00,
2013-06-09 21:54:00,79.4,19.7,29.97,WNW,293,4.7,8.7,11,0.00,,,0.00,WUHU216HW,2013-06-10 04:54:00,
2013-06-09 21:58:00,79.4,21.4,29.97,West,270,4.0,8.7,12,0.00,,,0.00,WUHU216HW,2013-06-10 04:58:00,
2013-06-09 21:59:00,79.4,19.7,29.97,WSW,248,3.6,8.7,11,0.00,,,0.00,WUHU216HW,2013-06-10 04:59:00,
2013-06-09 22:03:00,79.6,21.6,29.97,West,270,5.6,6.3,12,0.00,,,0.00,WUHU216HW,2013-06-10 05:03:00,
2013-06-09 22:04:00,79.6,21.6,29.97,West,270,6.7,7.6,12,0.00,,,0.00,WUHU216HW,2013-06-10 05:04:00,
2013-06-09 22:05:00,79.6,21.6,29.97,WNW,293,4.7,7.6,12,0.00,,,0.00,WUHU216HW,2013-06-10 05:05:00,
2013-06-09 22:08:00,79.7,21.7,29.97,WNW,293,5.1,7.6,12,0.00,,,0.00,WUHU216HW,2013-06-10 05:08:00,
2013-06-09 22:09:00,79.7,21.7,29.97,West,270,3.6,7.6,12,0.00,,,0.00,WUHU216HW,2013-06-10 05:09:00,
2013-06-09 22:10:00,79.7,21.7,29.97,West,270,4.7,7.6,12,0.00,,,0.00,WUHU216HW,2013-06-10 05:10:00,
2013-06-09 22:14:00,79.9,20.2,29.97,WSW,248,3.1,5.4,11,0.00,,,0.00,WUHU216HW,2013-06-10 05:14:00,
2013-06-09 22:15:00,79.9,20.2,29.97,West,270,4.7,5.4,11,0.00,,,0.00,WUHU216HW,2013-06-10 05:15:00,
2013-06-09 22:19:00,80.1,22.1,29.97,West,270,5.4,5.4,12,0.00,,,0.00,WUHU216HW,2013-06-10 05:19:00,
2013-06-09 22:20:00,80.1,22.1,29.97,West,270,4.5,5.4,12,0.00,,,0.00,WUHU216HW,2013-06-10 05:20:00,
2013-06-09 22:24:00,79.9,20.2,29.97,West,270,4.0,5.4,11,0.00,,,0.00,WUHU216HW,2013-06-10 05:24:00,
2013-06-09 22:25:00,80.1,22.1,29.97,West,270,4.9,5.4,12,0.00,,,0.00,WUHU216HW,2013-06-10 05:25:00,
2013-06-09 22:29:00,79.7,21.7,29.97,WSW,248,5.4,6.3,12,0.00,,,0.00,WUHU216HW,2013-06-10 05:29:00,
2013-06-09 22:30:00,79.7,21.7,29.97,West,270,5.4,6.3,12,0.00,,,0.00,WUHU216HW,2013-06-10 05:30:00,
2013-06-09 22:31:00,79.6,21.6,29.97,West,270,5.4,6.3,12,0.00,,,0.00,WUHU216HW,2013-06-10 05:31:00,
2013-06-09 22:34:00,79.4,21.4,29.97,West,270,4.9,8.7,12,0.00,,,0.00,WUHU216HW,2013-06-10 05:34:00,
2013-06-09 22:35:00,79.4,21.4,29.97,WSW,248,5.8,8.7,12,0.00,,,0.00,WUHU216HW,2013-06-10 05:35:00,
2013-06-09 22:36:00,79.2,21.2,29.97,West,270,6.0,8.7,12,0.00,,,0.00,WUHU216HW,2013-06-10 05:36:00,
2013-06-09 22:40:00,78.8,21.0,29.97,West,270,6.3,8.7,12,0.00,,,0.00,WUHU216HW,2013-06-10 05:40:00,
2013-06-09 22:41:00,78.7,20.9,29.97,WSW,248,7.6,8.7,12,0.00,,,0.00,WUHU216HW,2013-06-10 05:41:00,
2013-06-09 22:45:00,78.5,20.7,29.97,West,270,4.5,7.6,12,0.00,,,0.00,WUHU216HW,2013-06-10 05:45:00,
2013-06-09 22:47:00,78.3,20.6,29.97,West,270,5.1,7.6,12,0.00,,,0.00,WUHU216HW,2013-06-10 05:47:00,
2013-06-09 22:50:00,78.1,20.4,29.97,West,270,4.0,7.6,12,0.00,,,0.00,WUHU216HW,2013-06-10 05:50:00,
2013-06-09 22:52:00,78.1,20.4,29.97,West,270,6.0,6.9,12,0.00,,,0.00,WUHU216HW,2013-06-10 05:52:00,
2013-06-09 22:55:00,77.9,22.0,29.97,West,270,5.1,6.7,13,0.00,,,0.00,WUHU216HW,2013-06-10 05:55:00,
2013-06-09 22:56:00,77.8,21.9,29.97,West,270,5.8,6.7,13,0.00,,,0.00,WUHU216HW,2013-06-10 05:56:00,
2013-06-09 22:57:00,77.8,21.9,29.97,West,270,6.7,6.7,13,0.00,,,0.00,WUHU216HW,2013-06-10 05:57:00,
2013-06-09 23:00:00,77.6,21.8,29.96,West,270,6.3,6.7,13,0.00,,,0.00,WUHU216HW,2013-06-10 06:00:00,
2013-06-09 23:01:00,77.6,21.8,29.96,WNW,293,6.5,6.7,13,0.00,,,0.00,WUHU216HW,2013-06-10 06:01:00,
2013-06-09 23:02:00,77.4,21.6,29.96,West,270,6.0,6.7,13,0.00,,,0.00,WUHU216HW,2013-06-10 06:02:00,
2013-06-09 23:05:00,77.4,21.6,29.96,West,270,6.0,6.7,13,0.00,,,0.00,WUHU216HW,2013-06-10 06:05:00,
2013-06-09 23:06:00,77.4,21.6,29.96,West,270,4.9,6.7,13,0.00,,,0.00,WUHU216HW,2013-06-10 06:06:00,
2013-06-09 23:07:00,77.4,21.6,29.96,West,270,4.9,6.7,13,0.00,,,0.00,WUHU216HW,2013-06-10 06:07:00,
2013-06-09 23:10:00,77.4,21.6,29.96,West,270,4.7,6.7,13,0.00,,,0.00,WUHU216HW,2013-06-10 06:10:00,
2013-06-09 23:12:00,77.4,21.6,29.96,WNW,293,6.0,6.7,13,0.00,,,0.00,WUHU216HW,2013-06-10 06:12:00,
2013-06-09 23:13:00,77.2,21.5,29.96,West,270,5.4,6.7,13,0.00,,,0.00,WUHU216HW,2013-06-10 06:13:00,
2013-06-09 23:15:00,77.2,21.5,29.97,West,270,6.7,7.8,13,0.00,,,0.00,WUHU216HW,2013-06-10 06:15:00,
2013-06-09 23:17:00,77.0,21.3,29.97,West,270,6.3,7.8,13,0.00,,,0.00,WUHU216HW,2013-06-10 06:17:00,
2013-06-09 23:18:00,77.2,21.5,29.97,WSW,248,5.6,7.8,13,0.00,,,0.00,WUHU216HW,2013-06-10 06:18:00,
2013-06-09 23:20:00,77.0,21.3,29.97,WSW,248,5.8,7.8,13,0.00,,,0.00,WUHU216HW,2013-06-10 06:20:00,
2013-06-09 23:22:00,77.2,21.5,29.97,West,270,4.7,7.8,13,0.00,,,0.00,WUHU216HW,2013-06-10 06:22:00,
2013-06-09 23:23:00,77.0,21.3,29.97,West,270,5.8,7.8,13,0.00,,,0.00,WUHU216HW,2013-06-10 06:23:00,
2013-06-09 23:25:00,77.2,21.5,29.97,West,270,6.0,7.4,13,0.00,,,0.00,WUHU216HW,2013-06-10 06:25:00,
2013-06-09 23:27:00,77.2,21.5,29.97,SW,225,6.3,7.2,13,0.00,,,0.00,WUHU216HW,2013-06-10 06:27:00,
2013-06-09 23:28:00,77.2,23.1,29.97,WSW,248,6.7,7.2,14,0.00,,,0.00,WUHU216HW,2013-06-10 06:28:00,
2013-06-09 23:29:00,77.2,23.1,29.97,West,270,6.7,7.2,14,0.00,,,0.00,WUHU216HW,2013-06-10 06:29:00,
2013-06-09 23:31:00,77.2,24.8,29.97,West,270,6.0,7.2,15,0.00,,,0.00,WUHU216HW,2013-06-10 06:31:00,
2013-06-09 23:32:00,77.2,24.8,29.97,West,270,6.3,7.2,15,0.00,,,0.00,WUHU216HW,2013-06-10 06:32:00,
2013-06-09 23:33:00,77.2,24.8,29.97,West,270,5.1,7.2,15,0.00,,,0.00,WUHU216HW,2013-06-10 06:33:00,
2013-06-09 23:34:00,77.2,24.8,29.97,West,270,6.5,7.2,15,0.00,,,0.00,WUHU216HW,2013-06-10 06:34:00,
2013-06-09 23:36:00,77.2,24.8,29.97,West,270,8.1,8.1,15,0.00,,,0.00,WUHU216HW,2013-06-10 06:36:00,
2013-06-09 23:37:00,77.2,24.8,29.97,West,270,6.7,8.1,15,0.00,,,0.00,WUHU216HW,2013-06-10 06:37:00,
2013-06-09 23:38:00,77.2,24.8,29.97,West,270,6.9,8.1,15,0.00,,,0.00,WUHU216HW,2013-06-10 06:38:00,
2013-06-09 23:39:00,77.2,24.8,29.97,WSW,248,5.6,8.1,15,0.00,,,0.00,WUHU216HW,2013-06-10 06:39:00,
2013-06-09 23:41:00,77.2,24.8,29.97,WSW,248,5.4,8.3,15,0.00,,,0.00,WUHU216HW,2013-06-10 06:41:00,
2013-06-09 23:42:00,77.2,24.8,29.96,West,270,7.6,8.9,15,0.00,,,0.00,WUHU216HW,2013-06-10 06:42:00,
2013-06-09 23:44:00,77.2,24.8,29.96,WSW,248,6.9,8.9,15,0.00,,,0.00,WUHU216HW,2013-06-10 06:44:00,
2013-06-09 23:46:00,77.2,26.5,29.96,West,270,8.3,8.9,16,0.00,,,0.00,WUHU216HW,2013-06-10 06:46:00,
2013-06-09 23:47:00,77.2,26.5,29.96,West,270,6.9,8.9,16,0.00,,,0.00,WUHU216HW,2013-06-10 06:47:00,
2013-06-09 23:49:00,77.0,26.3,29.96,West,270,6.9,8.9,16,0.00,,,0.00,WUHU216HW,2013-06-10 06:49:00,
2013-06-09 23:52:00,77.0,26.3,29.96,WSW,248,6.0,8.3,16,0.00,,,0.00,WUHU216HW,2013-06-10 06:52:00,
2013-06-09 23:54:00,77.0,26.3,29.96,WSW,248,5.6,8.3,16,0.00,,,0.00,WUHU216HW,2013-06-10 06:54:00,
2013-06-09 23:55:00,77.0,26.3,29.96,WSW,248,6.0,8.3,16,0.00,,,0.00,WUHU216HW,2013-06-10 06:55:00,
2013-06-09 23:57:00,77.0,24.7,29.96,West,270,4.3,8.3,15,0.00,,,0.00,WUHU216HW,2013-06-10 06:57:00,
2013-06-09 23:59:00,77.0,24.7,29.96,WNW,293,3.4,8.3,15,0.00,,,0.00,WUHU216HW,2013-06-10 06:59:00,